Time,TemperatureF,DewpointF,PressureIn,WindDirection,WindDirectionDegrees,WindSpeedMPH,WindSpeedGustMPH,Humidity,HourlyPrecipIn,Conditions,Clouds,dailyrainin,SolarRadiationWatts/m^2,SoftwareType,DateUTC
2013-01-25 00:00:00,19.9,9.0,30.29,SSW,209,5.0,6.0,62,0.00,,OVC050,0.00,0.00,VWS V14.00,2013-01-25 06:00:00,
2013-01-25 00:01:00,19.9,9.4,30.29,SSW,198,4.0,7.0,63,0.00,,OVC050,0.00,0.00,VWS V14.00,2013-01-25 06:01:00,
2013-01-25 00:03:00,19.9,9.0,30.30,SSW,198,5.0,8.0,62,0.00,,OVC050,0.00,0.00,VWS V14.00,2013-01-25 06:03:00,
2013-01-25 00:05:00,19.9,9.0,30.30,SSW,213,6.0,8.0,62,0.00,,CLR,0.00,0.00,VWS V14.00,2013-01-25 06:05:00,
2013-01-25 00:06:00,19.9,9.0,30.30,SSW,213,8.0,9.0,62,0.00,,OVC050,0.00,0.00,VWS V14.00,2013-01-25 06:06:00,
2013-01-25 00:07:00,19.9,9.0,30.30,SSW,209,5.0,9.0,62,0.00,,OVC050,0.00,0.00,VWS V14.00,2013-01-25 06:07:00,
2013-01-25 00:09:00,19.9,9.0,30.30,SSW,199,4.0,9.0,62,0.00,,OVC050,0.00,0.00,VWS V14.00,2013-01-25 06:09:00,
2013-01-25 00:10:00,19.9,9.0,30.30,SSW,199,5.0,9.0,62,0.00,,CLR,0.00,0.00,VWS V14.00,2013-01-25 06:10:00,
2013-01-25 00:11:00,19.9,9.0,30.29,SSW,198,5.0,6.0,62,0.00,,OVC050,0.00,0.00,VWS V14.00,2013-01-25 06:11:00,
2013-01-25 00:12:00,19.9,9.0,30.29,SSW,211,4.0,6.0,62,0.00,,OVC050,0.00,0.00,VWS V14.00,2013-01-25 06:12:00,
2013-01-25 00:14:00,19.9,9.4,30.29,SSW,209,5.0,8.0,63,0.00,,OVC050,0.00,0.00,VWS V14.00,2013-01-25 06:14:00,
2013-01-25 00:15:00,19.9,9.4,30.29,SSW,209,5.0,8.0,63,0.00,,CLR,0.00,0.00,VWS V14.00,2013-01-25 06:15:00,
2013-01-25 00:16:00,19.9,9.0,30.29,SSW,196,6.0,8.0,62,0.00,,OVC050,0.00,0.00,VWS V14.00,2013-01-25 06:16:00,
2013-01-25 00:17:00,19.9,9.0,30.29,SSW,196,4.0,8.0,62,0.00,,OVC050,0.00,0.00,VWS V14.00,2013-01-25 06:17:00,
2013-01-25 00:19:00,19.9,9.0,30.29,SSW,192,5.0,5.0,62,0.00,,OVC050,0.00,0.00,VWS V14.00,2013-01-25 06:19:00,
2013-01-25 00:20:00,19.9,9.0,30.29,SSW,192,5.0,8.0,62,0.00,,CLR,0.00,0.00,VWS V14.00,2013-01-25 06:20:00,
2013-01-25 00:22:00,19.9,8.6,30.29,SSW,196,3.0,10.0,61,0.00,,OVC046,0.00,0.00,VWS V14.00,2013-01-25 06:22:00,
2013-01-25 00:24:00,19.9,9.4,30.29,SSW,202,5.0,7.0,63,0.00,,OVC046,0.00,0.00,VWS V14.00,2013-01-25 06:24:00,
2013-01-25 00:25:00,19.8,9.3,30.29,South,186,3.0,10.0,63,0.00,,CLR,0.00,0.00,VWS V14.00,2013-01-25 06:25:00,
2013-01-25 00:27:00,19.9,9.4,30.29,SSW,198,6.0,7.0,63,0.00,,OVC046,0.00,0.00,VWS V14.00,2013-01-25 06:27:00,
2013-01-25 00:29:00,19.8,9.3,30.29,SW,221,5.0,6.0,63,0.00,,OVC046,0.00,0.00,VWS V14.00,2013-01-25 06:29:00,
2013-01-25 00:30:00,19.8,9.3,30.29,SSW,209,5.0,7.0,63,0.00,,CLR,0.00,0.00,VWS V14.00,2013-01-25 06:30:00,
2013-01-25 00:32:00,19.8,9.3,30.29,SSW,209,5.0,7.0,63,0.00,,OVC046,0.00,0.00,VWS V14.00,2013-01-25 06:32:00,
2013-01-25 00:34:00,19.8,9.3,30.29,SSW,198,4.0,5.0,63,0.00,,OVC046,0.00,0.00,VWS V14.00,2013-01-25 06:34:00,
2013-01-25 00:35:00,19.8,9.3,30.29,SSW,200,4.0,7.0,63,0.00,,CLR,0.00,0.00,VWS V14.00,2013-01-25 06:35:00,
2013-01-25 00:37:00,19.8,9.6,30.28,South,188,4.0,6.0,64,0.00,,OVC046,0.00,0.00,VWS V14.00,2013-01-25 06:37:00,
2013-01-25 00:39:00,19.8,9.6,30.28,SW,215,7.0,7.0,64,0.00,,OVC044,0.00,0.00,VWS V14.00,2013-01-25 06:39:00,
2013-01-25 00:40:00,19.8,9.6,30.28,SSW,205,5.0,6.0,64,0.00,,CLR,0.00,0.00,VWS V14.00,2013-01-25 06:40:00,
2013-01-25 00:42:00,19.8,9.6,30.28,SSW,211,6.0,7.0,64,0.00,,OVC044,0.00,0.00,VWS V14.00,2013-01-25 06:42:00,
2013-01-25 00:45:00,19.7,9.5,30.28,South,191,5.0,7.0,64,0.00,,OVC044,0.00,0.00,VWS V14.00,2013-01-25 06:45:00,
2013-01-25 00:47:00,19.8,9.6,30.28,SSW,212,4.0,7.0,64,0.00,,OVC044,0.00,0.00,VWS V14.00,2013-01-25 06:47:00,
2013-01-25 00:48:00,19.7,9.5,30.28,SSW,208,8.0,8.0,64,0.00,,OVC044,0.00,0.00,VWS V14.00,2013-01-25 06:48:00,
2013-01-25 00:50:00,19.7,9.5,30.28,SSW,208,3.0,5.0,64,0.00,,OVC044,0.00,0.00,VWS V14.00,2013-01-25 06:50:00,
2013-01-25 00:52:00,19.7,9.5,30.28,SSW,213,4.0,8.0,64,0.00,,OVC044,0.00,0.00,VWS V14.00,2013-01-25 06:52:00,
2013-01-25 00:53:00,19.8,9.6,30.28,SSW,209,5.0,8.0,64,0.00,,OVC044,0.00,0.00,VWS V14.00,2013-01-25 06:53:00,
2013-01-25 00:55:00,19.7,9.5,30.28,SSW,209,5.0,6.0,64,0.00,,OVC044,0.00,0.00,VWS V14.00,2013-01-25 06:55:00,
2013-01-25 00:57:00,19.8,9.6,30.28,SW,214,4.0,6.0,64,0.00,,OVC044,0.00,0.00,VWS V14.00,2013-01-25 06:57:00,
2013-01-25 00:58:00,19.8,9.9,30.28,SSW,212,4.0,6.0,65,0.00,,OVC044,0.00,0.00,VWS V14.00,2013-01-25 06:58:00,
2013-01-25 01:00:00,19.7,9.9,30.28,SSW,209,4.0,4.0,65,0.00,,OVC042,0.00,0.00,VWS V14.00,2013-01-25 07:00:00,
2013-01-25 01:02:00,19.8,9.9,30.28,SSW,212,3.0,6.0,65,0.00,,OVC042,0.00,0.00,VWS V14.00,2013-01-25 07:02:00,
2013-01-25 01:03:00,19.8,9.9,30.28,SSW,204,3.0,6.0,65,0.00,,OVC042,0.00,0.00,VWS V14.00,2013-01-25 07:03:00,
2013-01-25 01:05:00,19.8,9.9,30.27,SSW,201,3.0,6.0,65,0.00,,OVC042,0.00,0.00,VWS V14.00,2013-01-25 07:05:00,
2013-01-25 01:07:00,19.7,10.2,30.27,SW,215,4.0,6.0,66,0.00,,OVC042,0.00,0.00,VWS V14.00,2013-01-25 07:07:00,
2013-01-25 01:08:00,19.8,9.9,30.27,SSW,212,3.0,6.0,65,0.00,,OVC042,0.00,0.00,VWS V14.00,2013-01-25 07:08:00,
2013-01-25 01:09:00,19.8,9.9,30.27,SSW,212,2.0,6.0,65,0.00,,OVC042,0.00,0.00,VWS V14.00,2013-01-25 07:09:00,
2013-01-25 01:10:00,19.8,9.6,30.27,SSW,211,3.0,3.0,64,0.00,,OVC042,0.00,0.00,VWS V14.00,2013-01-25 07:10:00,
2013-01-25 01:12:00,19.8,9.9,30.26,SSW,213,4.0,5.0,65,0.00,,OVC042,0.00,0.00,VWS V14.00,2013-01-25 07:12:00,
2013-01-25 01:14:00,19.8,9.9,30.26,SSW,202,4.0,5.0,65,0.00,,OVC042,0.00,0.00,VWS V14.00,2013-01-25 07:14:00,
2013-01-25 01:15:00,19.8,9.9,30.25,South,190,5.0,7.0,65,0.00,,OVC042,0.00,0.00,VWS V14.00,2013-01-25 07:15:00,
2013-01-25 01:18:00,19.8,9.6,30.24,SSW,193,4.0,7.0,64,0.00,,OVC042,0.00,0.00,VWS V14.00,2013-01-25 07:18:00,
2013-01-25 01:19:00,19.8,9.3,30.24,SSW,197,2.0,7.0,63,0.00,,OVC042,0.00,0.00,VWS V14.00,2013-01-25 07:19:00,
2013-01-25 01:20:00,19.8,9.6,30.24,SSW,202,3.0,5.0,64,0.00,,OVC028,0.00,0.00,VWS V14.00,2013-01-25 07:20:00,
2013-01-25 01:23:00,19.9,9.7,30.25,SSW,200,4.0,5.0,64,0.00,,OVC028,0.00,0.00,VWS V14.00,2013-01-25 07:23:00,
2013-01-25 01:24:00,19.8,9.6,30.25,SSW,210,3.0,5.0,64,0.00,,OVC028,0.00,0.00,VWS V14.00,2013-01-25 07:24:00,
2013-01-25 01:25:00,19.9,9.7,30.24,SSW,196,4.0,6.0,64,0.00,,OVC028,0.00,0.00,VWS V14.00,2013-01-25 07:25:00,
2013-01-25 01:28:00,19.9,9.7,30.24,SSW,192,4.0,7.0,64,0.00,,OVC028,0.00,0.00,VWS V14.00,2013-01-25 07:28:00,
2013-01-25 01:29:00,19.9,9.7,30.24,South,181,1.0,8.0,64,0.00,,OVC028,0.00,0.00,VWS V14.00,2013-01-25 07:29:00,
2013-01-25 01:30:00,19.9,9.4,30.24,SSW,197,3.0,7.0,63,0.00,,OVC028,0.00,0.00,VWS V14.00,2013-01-25 07:30:00,
2013-01-25 01:33:00,19.9,9.7,30.23,SSE,161,6.0,7.0,64,0.00,,OVC028,0.00,0.00,VWS V14.00,2013-01-25 07:33:00,
2013-01-25 01:34:00,19.9,9.7,30.22,South,185,3.0,4.0,64,0.00,,OVC028,0.00,0.00,VWS V14.00,2013-01-25 07:34:00,
2013-01-25 01:35:00,19.9,9.7,30.22,SSW,209,3.0,6.0,64,0.00,,OVC028,0.00,0.00,VWS V14.00,2013-01-25 07:35:00,
2013-01-25 01:36:00,19.9,9.7,30.22,South,176,4.0,6.0,64,0.00,,OVC028,0.00,0.00,VWS V14.00,2013-01-25 07:36:00,
2013-01-25 01:38:00,19.9,9.7,30.23,SSW,205,3.0,6.0,64,0.00,,OVC028,0.00,0.00,VWS V14.00,2013-01-25 07:38:00,
2013-01-25 01:39:00,19.9,9.7,30.23,SSW,204,6.0,8.0,64,0.00,,OVC028,0.00,0.00,VWS V14.00,2013-01-25 07:39:00,
2013-01-25 01:40:00,19.9,9.7,30.23,SSW,200,8.0,8.0,64,0.00,,CLR,0.00,0.00,VWS V14.00,2013-01-25 07:40:00,
2013-01-25 01:41:00,19.9,9.7,30.23,SSW,198,4.0,8.0,64,0.00,,OVC028,0.00,0.00,VWS V14.00,2013-01-25 07:41:00,
2013-01-25 01:43:00,20.0,9.8,30.24,SSE,157,6.0,8.0,64,0.00,,OVC028,0.00,0.00,VWS V14.00,2013-01-25 07:43:00,
2013-01-25 01:44:00,20.0,9.8,30.24,SW,215,5.0,5.0,64,0.00,,OVC028,0.00,0.00,VWS V14.00,2013-01-25 07:44:00,
2013-01-25 01:45:00,20.0,9.8,30.24,SSW,207,4.0,8.0,64,0.00,,CLR,0.00,0.00,VWS V14.00,2013-01-25 07:45:00,
2013-01-25 01:46:00,20.0,9.8,30.24,SSW,207,5.0,6.0,64,0.00,,OVC028,0.00,0.00,VWS V14.00,2013-01-25 07:46:00,
2013-01-25 01:49:00,20.0,10.1,30.23,SSW,193,3.0,8.0,65,0.00,,OVC028,0.00,0.00,VWS V14.00,2013-01-25 07:49:00,
2013-01-25 01:50:00,20.0,10.1,30.23,SSW,193,3.0,8.0,65,0.00,,CLR,0.00,0.00,VWS V14.00,2013-01-25 07:50:00,
2013-01-25 01:51:00,20.0,9.8,30.22,South,186,6.0,8.0,64,0.00,,OVC028,0.00,0.00,VWS V14.00,2013-01-25 07:51:00,
2013-01-25 01:54:00,20.0,9.8,30.21,SSW,194,6.0,6.0,64,0.00,,OVC028,0.00,0.00,VWS V14.00,2013-01-25 07:54:00,
2013-01-25 01:55:00,20.0,9.8,30.22,SSW,209,6.0,8.0,64,0.00,,CLR,0.00,0.00,VWS V14.00,2013-01-25 07:55:00,
2013-01-25 01:56:00,20.0,9.8,30.22,SSW,199,3.0,8.0,64,0.00,,OVC028,0.00,0.00,VWS V14.00,2013-01-25 07:56:00,
2013-01-25 01:59:00,20.0,9.8,30.22,SSW,207,7.0,7.0,64,0.00,,OVC028,0.00,0.00,VWS V14.00,2013-01-25 07:59:00,
2013-01-25 02:00:00,20.0,9.8,30.22,SSW,213,5.0,8.0,64,0.00,,CLR,0.00,0.00,VWS V14.00,2013-01-25 08:00:00,
2013-01-25 02:01:00,20.0,9.8,30.22,SSW,204,4.0,7.0,64,0.00,,OVC030,0.00,0.00,VWS V14.00,2013-01-25 08:01:00,
2013-01-25 02:04:00,20.0,10.1,30.22,SSW,206,5.0,6.0,65,0.00,,OVC030,0.00,0.00,VWS V14.00,2013-01-25 08:04:00,
2013-01-25 02:05:00,19.9,10.1,30.22,South,182,4.0,8.0,65,0.00,,OVC030,0.00,0.00,VWS V14.00,2013-01-25 08:05:00,
2013-01-25 02:06:00,20.0,10.1,30.22,SSW,206,5.0,8.0,65,0.00,,OVC030,0.00,0.00,VWS V14.00,2013-01-25 08:06:00,
2013-01-25 02:07:00,20.0,10.1,30.22,SSW,207,4.0,8.0,65,0.00,,OVC030,0.00,0.00,VWS V14.00,2013-01-25 08:07:00,
2013-01-25 02:09:00,19.9,10.1,30.22,SSW,201,3.0,6.0,65,0.00,,OVC030,0.00,0.00,VWS V14.00,2013-01-25 08:09:00,
2013-01-25 02:10:00,19.9,10.1,30.22,SSW,198,4.0,7.0,65,0.00,,OVC030,0.00,0.00,VWS V14.00,2013-01-25 08:10:00,
2013-01-25 02:11:00,20.0,9.8,30.22,SSW,213,7.0,9.0,64,0.00,,OVC030,0.00,0.00,VWS V14.00,2013-01-25 08:11:00,
2013-01-25 02:12:00,20.0,9.8,30.21,SW,215,5.0,9.0,64,0.00,,OVC030,0.00,0.00,VWS V14.00,2013-01-25 08:12:00,
2013-01-25 02:14:00,20.0,10.1,30.21,SSW,197,6.0,6.0,65,0.00,,OVC030,0.00,0.00,VWS V14.00,2013-01-25 08:14:00,
2013-01-25 02:15:00,19.9,10.1,30.21,SW,224,8.0,8.0,65,0.00,,OVC030,0.00,0.00,VWS V14.00,2013-01-25 08:15:00,
2013-01-25 02:16:00,20.0,10.1,30.21,SSW,211,7.0,8.0,65,0.00,,OVC030,0.00,0.00,VWS V14.00,2013-01-25 08:16:00,
2013-01-25 02:18:00,20.0,10.1,30.21,SSW,200,3.0,8.0,65,0.00,,OVC030,0.00,0.00,VWS V14.00,2013-01-25 08:18:00,
2013-01-25 02:20:00,20.0,10.1,30.21,SSW,211,5.0,6.0,65,0.00,,OVC032,0.00,0.00,VWS V14.00,2013-01-25 08:20:00,
2013-01-25 02:21:00,19.9,10.1,30.21,SSW,196,6.0,9.0,65,0.00,,OVC032,0.00,0.00,VWS V14.00,2013-01-25 08:21:00,
2013-01-25 02:23:00,19.9,10.1,30.21,SSW,212,6.0,9.0,65,0.00,,OVC032,0.00,0.00,VWS V14.00,2013-01-25 08:23:00,
2013-01-25 02:25:00,20.0,10.1,30.21,SSW,207,5.0,8.0,65,0.00,,OVC032,0.00,0.00,VWS V14.00,2013-01-25 08:25:00,
2013-01-25 02:27:00,20.0,10.1,30.21,SW,214,7.0,10.0,65,0.00,,OVC032,0.00,0.00,VWS V14.00,2013-01-25 08:27:00,
2013-01-25 02:28:00,20.0,10.1,30.21,SSW,209,4.0,10.0,65,0.00,,OVC032,0.00,0.00,VWS V14.00,2013-01-25 08:28:00,
2013-01-25 02:30:00,20.0,10.1,30.21,SSW,204,4.0,6.0,65,0.00,,OVC032,0.00,0.00,VWS V14.00,2013-01-25 08:30:00,
2013-01-25 02:32:00,20.0,10.1,30.21,SSW,195,6.0,8.0,65,0.00,,OVC032,0.00,0.00,VWS V14.00,2013-01-25 08:32:00,
2013-01-25 02:33:00,20.0,10.1,30.22,SW,215,4.0,9.0,65,0.00,,OVC032,0.00,0.00,VWS V14.00,2013-01-25 08:33:00,
2013-01-25 02:35:00,20.0,10.1,30.22,SW,218,4.0,6.0,65,0.00,,OVC032,0.00,0.00,VWS V14.00,2013-01-25 08:35:00,
2013-01-25 02:37:00,20.0,10.1,30.22,North,360,5.0,6.0,65,0.00,,OVC032,0.00,0.00,VWS V14.00,2013-01-25 08:37:00,
2013-01-25 02:38:00,20.0,10.1,30.23,SW,221,3.0,6.0,65,0.00,,OVC032,0.00,0.00,VWS V14.00,2013-01-25 08:38:00,
2013-01-25 02:40:00,19.9,10.1,30.23,SW,221,4.0,5.0,65,0.00,,OVC032,0.00,0.00,VWS V14.00,2013-01-25 08:40:00,
2013-01-25 02:42:00,19.9,10.1,30.24,SW,221,2.0,5.0,65,0.00,,OVC032,0.00,0.00,VWS V14.00,2013-01-25 08:42:00,
2013-01-25 02:43:00,19.9,9.7,30.24,SW,236,1.0,5.0,64,0.00,,OVC032,0.00,0.00,VWS V14.00,2013-01-25 08:43:00,
2013-01-25 02:45:00,19.9,9.7,30.24,SW,236,4.0,4.0,64,0.00,,OVC032,0.00,0.00,VWS V14.00,2013-01-25 08:45:00,
2013-01-25 02:46:00,19.9,9.7,30.24,SW,236,2.0,4.0,64,0.00,,OVC032,0.00,0.00,VWS V14.00,2013-01-25 08:46:00,
2013-01-25 02:47:00,19.9,9.4,30.24,SW,235,1.0,4.0,63,0.00,,OVC032,0.00,0.00,VWS V14.00,2013-01-25 08:47:00,
2013-01-25 02:48:00,19.9,9.4,30.24,SW,236,2.0,4.0,63,0.00,,OVC032,0.00,0.00,VWS V14.00,2013-01-25 08:48:00,
2013-01-25 02:50:00,19.9,9.4,30.24,SW,236,1.0,4.0,63,0.00,,CLR,0.00,0.00,VWS V14.00,2013-01-25 08:50:00,
2013-01-25 02:51:00,19.9,9.7,30.24,SW,236,0.0,2.0,64,0.00,,OVC032,0.00,0.00,VWS V14.00,2013-01-25 08:51:00,
2013-01-25 02:52:00,19.9,9.7,30.25,SW,235,0.0,2.0,64,0.00,,OVC032,0.00,0.00,VWS V14.00,2013-01-25 08:52:00,
2013-01-25 02:53:00,19.9,9.7,30.24,SW,236,0.0,2.0,64,0.00,,OVC032,0.00,0.00,VWS V14.00,2013-01-25 08:53:00,
2013-01-25 02:55:00,19.9,9.7,30.24,SW,236,1.0,2.0,64,0.00,,CLR,0.00,0.00,VWS V14.00,2013-01-25 08:55:00,
2013-01-25 02:56:00,19.9,9.7,30.24,SW,236,0.0,3.0,64,0.00,,OVC032,0.00,0.00,VWS V14.00,2013-01-25 08:56:00,
2013-01-25 02:57:00,19.9,9.7,30.24,SW,236,0.0,3.0,64,0.00,,OVC032,0.00,0.00,VWS V14.00,2013-01-25 08:57:00,
2013-01-25 02:58:00,20.0,10.1,30.24,SW,236,0.0,3.0,65,0.00,,OVC032,0.00,0.00,VWS V14.00,2013-01-25 08:58:00,
2013-01-25 03:00:00,20.0,10.1,30.24,SW,236,3.0,4.0,65,0.00,,CLR,0.00,0.00,VWS V14.00,2013-01-25 09:00:00,
2013-01-25 03:01:00,20.0,10.1,30.24,SW,236,1.0,3.0,65,0.00,,OVC032,0.00,0.00,VWS V14.00,2013-01-25 09:01:00,
2013-01-25 03:02:00,20.0,9.8,30.24,SW,236,1.0,3.0,64,0.00,,OVC032,0.00,0.00,VWS V14.00,2013-01-25 09:02:00,
2013-01-25 03:03:00,20.0,9.8,30.24,SW,236,1.0,3.0,64,0.00,,OVC032,0.00,0.00,VWS V14.00,2013-01-25 09:03:00,
2013-01-25 03:04:00,20.0,9.8,30.24,SW,236,0.0,3.0,64,0.00,,OVC032,0.00,0.00,VWS V14.00,2013-01-25 09:04:00,
2013-01-25 03:05:00,20.0,9.8,30.24,SW,236,0.0,3.0,64,0.00,,CLR,0.00,0.00,VWS V14.00,2013-01-25 09:05:00,
2013-01-25 03:06:00,20.0,9.8,30.24,SW,236,0.0,2.0,64,0.00,,OVC032,0.00,0.00,VWS V14.00,2013-01-25 09:06:00,
2013-01-25 03:07:00,20.0,9.8,30.24,SW,236,0.0,2.0,64,0.00,,OVC032,0.00,0.00,VWS V14.00,2013-01-25 09:07:00,
2013-01-25 03:08:00,20.0,9.8,30.24,SW,236,2.0,2.0,64,0.00,,OVC032,0.00,0.00,VWS V14.00,2013-01-25 09:08:00,
2013-01-25 03:09:00,20.0,9.8,30.24,SW,236,2.0,3.0,64,0.00,,OVC032,0.00,0.00,VWS V14.00,2013-01-25 09:09:00,
2013-01-25 03:10:00,20.0,9.8,30.24,SW,236,2.0,3.0,64,0.00,,CLR,0.00,0.00,VWS V14.00,2013-01-25 09:10:00,
2013-01-25 03:11:00,20.0,9.8,30.24,SW,235,0.0,3.0,64,0.00,,OVC032,0.00,0.00,VWS V14.00,2013-01-25 09:11:00,
2013-01-25 03:12:00,20.0,9.8,30.24,SW,236,2.0,3.0,64,0.00,,OVC032,0.00,0.00,VWS V14.00,2013-01-25 09:12:00,
2013-01-25 03:13:00,20.0,9.8,30.24,SW,236,0.0,3.0,64,0.00,,OVC032,0.00,0.00,VWS V14.00,2013-01-25 09:13:00,
2013-01-25 03:14:00,20.0,9.8,30.24,SW,236,0.0,3.0,64,0.00,,OVC032,0.00,0.00,VWS V14.00,2013-01-25 09:14:00,
2013-01-25 03:15:00,20.0,9.8,30.24,SW,236,0.0,3.0,64,0.00,,CLR,0.00,0.00,VWS V14.00,2013-01-25 09:15:00,
2013-01-25 03:16:00,20.0,9.8,30.23,SW,236,1.0,2.0,64,0.00,,OVC032,0.00,0.00,VWS V14.00,2013-01-25 09:16:00,
2013-01-25 03:17:00,20.0,9.8,30.23,SW,236,0.0,2.0,64,0.00,,OVC032,0.00,0.00,VWS V14.00,2013-01-25 09:17:00,
2013-01-25 03:18:00,20.0,9.8,30.23,SW,236,0.0,2.0,64,0.00,,OVC032,0.00,0.00,VWS V14.00,2013-01-25 09:18:00,
2013-01-25 03:19:00,19.9,10.1,30.23,SW,236,0.0,2.0,65,0.00,,OVC032,0.00,0.00,VWS V14.00,2013-01-25 09:19:00,
2013-01-25 03:20:00,20.0,10.1,30.23,SW,236,0.0,2.0,65,0.00,,CLR,0.00,0.00,VWS V14.00,2013-01-25 09:20:00,
2013-01-25 03:22:00,19.9,10.1,30.23,SW,236,0.0,3.0,65,0.00,,OVC034,0.00,0.00,VWS V14.00,2013-01-25 09:22:00,
2013-01-25 03:23:00,19.9,10.1,30.23,SW,236,1.0,3.0,65,0.00,,OVC034,0.00,0.00,VWS V14.00,2013-01-25 09:23:00,
2013-01-25 03:24:00,19.8,9.9,30.23,SW,236,0.0,0.0,65,0.00,,OVC034,0.00,0.00,VWS V14.00,2013-01-25 09:24:00,
2013-01-25 03:25:00,19.8,9.9,30.23,SW,236,0.0,3.0,65,0.00,,CLR,0.00,0.00,VWS V14.00,2013-01-25 09:25:00,
2013-01-25 03:27:00,19.8,9.9,30.23,SW,235,0.0,1.0,65,0.00,,OVC034,0.00,0.00,VWS V14.00,2013-01-25 09:27:00,
2013-01-25 03:28:00,19.7,9.9,30.23,SW,236,0.0,1.0,65,0.00,,OVC034,0.00,0.00,VWS V14.00,2013-01-25 09:28:00,
2013-01-25 03:29:00,19.7,10.2,30.23,SW,236,0.0,2.0,66,0.00,,OVC034,0.00,0.00,VWS V14.00,2013-01-25 09:29:00,
2013-01-25 03:30:00,19.7,9.9,30.23,SW,236,1.0,2.0,65,0.00,,CLR,0.00,0.00,VWS V14.00,2013-01-25 09:30:00,
2013-01-25 03:32:00,19.6,9.8,30.23,SW,236,0.0,2.0,65,0.00,,OVC034,0.00,0.00,VWS V14.00,2013-01-25 09:32:00,
2013-01-25 03:33:00,19.6,10.1,30.23,SW,236,0.0,2.0,66,0.00,,OVC034,0.00,0.00,VWS V14.00,2013-01-25 09:33:00,
2013-01-25 03:34:00,19.5,10.0,30.23,SW,235,0.0,0.0,66,0.00,,OVC034,0.00,0.00,VWS V14.00,2013-01-25 09:34:00,
2013-01-25 03:35:00,19.5,10.0,30.23,SW,236,0.0,2.0,66,0.00,,CLR,0.00,0.00,VWS V14.00,2013-01-25 09:35:00,
2013-01-25 03:37:00,19.5,10.0,30.22,SW,236,0.0,1.0,66,0.00,,OVC034,0.00,0.00,VWS V14.00,2013-01-25 09:37:00,
2013-01-25 03:38:00,19.4,9.9,30.23,SW,236,0.0,1.0,66,0.00,,OVC034,0.00,0.00,VWS V14.00,2013-01-25 09:38:00,
2013-01-25 03:39:00,19.4,11.9,30.22,SW,236,0.0,0.0,72,0.00,,OVC034,0.00,0.00,VWS V14.00,2013-01-25 09:39:00,
2013-01-25 03:40:00,19.4,11.9,30.22,SW,236,0.0,1.0,72,0.00,,CLR,0.00,0.00,VWS V14.00,2013-01-25 09:40:00,
2013-01-25 03:42:00,19.2,9.7,30.22,SW,236,0.0,0.0,66,0.00,,OVC036,0.00,0.00,VWS V14.00,2013-01-25 09:42:00,
2013-01-25 03:44:00,19.1,10.0,30.22,SW,236,1.0,1.0,67,0.00,,OVC036,0.00,0.00,VWS V14.00,2013-01-25 09:44:00,
2013-01-25 03:45:00,19.1,10.0,30.22,SW,236,0.0,1.0,67,0.00,,OVC036,0.00,0.00,VWS V14.00,2013-01-25 09:45:00,
2013-01-25 03:47:00,18.9,10.1,30.22,SW,236,1.0,2.0,68,0.00,,OVC036,0.00,0.00,VWS V14.00,2013-01-25 09:47:00,
2013-01-25 03:49:00,18.8,10.0,30.22,SW,236,0.0,2.0,68,0.00,,OVC036,0.00,0.00,VWS V14.00,2013-01-25 09:49:00,
2013-01-25 03:50:00,18.7,9.9,30.22,SW,236,1.0,1.0,68,0.00,,OVC036,0.00,0.00,VWS V14.00,2013-01-25 09:50:00,
2013-01-25 03:52:00,18.5,9.7,30.22,SW,236,1.0,2.0,68,0.00,,OVC036,0.00,0.00,VWS V14.00,2013-01-25 09:52:00,
2013-01-25 03:54:00,18.4,9.9,30.22,SW,236,0.0,2.0,69,0.00,,OVC036,0.00,0.00,VWS V14.00,2013-01-25 09:54:00,
2013-01-25 03:55:00,18.3,9.9,30.21,SW,235,0.0,1.0,69,0.00,,OVC036,0.00,0.00,VWS V14.00,2013-01-25 09:55:00,
2013-01-25 03:57:00,18.2,9.8,30.21,SW,236,0.0,1.0,69,0.00,,OVC036,0.00,0.00,VWS V14.00,2013-01-25 09:57:00,
2013-01-25 03:59:00,18.1,10.0,30.21,SW,236,0.0,1.0,70,0.00,,OVC036,0.00,0.00,VWS V14.00,2013-01-25 09:59:00,
2013-01-25 04:00:00,18.0,9.9,30.21,SW,236,0.0,2.0,70,0.00,,BKN036,0.00,0.00,VWS V14.00,2013-01-25 10:00:00,
2013-01-25 04:03:00,17.7,9.6,30.21,SW,236,0.0,2.0,70,0.00,,BKN036,0.00,0.00,VWS V14.00,2013-01-25 10:03:00,
2013-01-25 04:04:00,17.7,9.6,30.21,SW,236,0.0,2.0,70,0.00,,BKN036,0.00,0.00,VWS V14.00,2013-01-25 10:04:00,
2013-01-25 04:05:00,17.6,9.5,30.21,SW,236,0.0,0.0,70,0.00,,BKN036,0.00,0.00,VWS V14.00,2013-01-25 10:05:00,
2013-01-25 04:08:00,17.4,9.6,30.20,SW,236,0.0,0.0,71,0.00,,BKN036,0.00,0.00,VWS V14.00,2013-01-25 10:08:00,
2013-01-25 04:09:00,17.4,9.9,30.20,SW,236,0.0,0.0,72,0.00,,BKN036,0.00,0.00,VWS V14.00,2013-01-25 10:09:00,
2013-01-25 04:10:00,17.3,9.8,30.20,SW,236,0.0,2.0,72,0.00,,BKN036,0.00,0.00,VWS V14.00,2013-01-25 10:10:00,
2013-01-25 04:13:00,17.2,10.1,30.20,SW,236,0.0,2.0,73,0.00,,BKN036,0.00,0.00,VWS V14.00,2013-01-25 10:13:00,
2013-01-25 04:14:00,17.2,10.1,30.20,SW,236,1.0,1.0,73,0.00,,BKN036,0.00,0.00,VWS V14.00,2013-01-25 10:14:00,
2013-01-25 04:15:00,17.2,10.4,30.20,SW,236,0.0,1.0,74,0.00,,BKN036,0.00,0.00,VWS V14.00,2013-01-25 10:15:00,
2013-01-25 04:18:00,17.2,10.6,30.20,SW,236,1.0,2.0,75,0.00,,BKN036,0.00,0.00,VWS V14.00,2013-01-25 10:18:00,
2013-01-25 04:19:00,17.1,10.6,30.20,SW,236,2.0,2.0,75,0.00,,BKN036,0.00,0.00,VWS V14.00,2013-01-25 10:19:00,
2013-01-25 04:20:00,17.1,10.6,30.20,SW,236,1.0,2.0,75,0.00,,SCT036,0.00,0.00,VWS V14.00,2013-01-25 10:20:00,
2013-01-25 04:23:00,17.1,10.6,30.20,SW,236,0.0,2.0,75,0.00,,SCT036,0.00,0.00,VWS V14.00,2013-01-25 10:23:00,
2013-01-25 04:24:00,17.1,10.6,30.20,SW,236,0.0,0.0,75,0.00,,SCT036,0.00,0.00,VWS V14.00,2013-01-25 10:24:00,
2013-01-25 04:25:00,17.1,10.6,30.19,SW,236,0.0,0.0,75,0.00,,SCT036,0.00,0.00,VWS V14.00,2013-01-25 10:25:00,
2013-01-25 04:26:00,17.1,10.6,30.19,SW,236,1.0,1.0,75,0.00,,SCT036,0.00,0.00,VWS V14.00,2013-01-25 10:26:00,
2013-01-25 04:28:00,17.0,10.8,30.19,SW,236,1.0,2.0,76,0.00,,SCT036,0.00,0.00,VWS V14.00,2013-01-25 10:28:00,
2013-01-25 04:29:00,17.0,10.8,30.19,SW,236,0.0,1.0,76,0.00,,SCT036,0.00,0.00,VWS V14.00,2013-01-25 10:29:00,
2013-01-25 04:30:00,16.9,10.7,30.19,SW,236,1.0,2.0,76,0.00,,SCT036,0.00,0.00,VWS V14.00,2013-01-25 10:30:00,
2013-01-25 04:31:00,16.8,10.6,30.19,SW,236,1.0,2.0,76,0.00,,SCT036,0.00,0.00,VWS V14.00,2013-01-25 10:31:00,
2013-01-25 04:34:00,16.7,10.5,30.19,SW,236,1.0,3.0,76,0.00,,SCT036,0.00,0.00,VWS V14.00,2013-01-25 10:34:00,
2013-01-25 04:35:00,16.6,10.7,30.19,SW,236,2.0,3.0,77,0.00,,SCT036,0.00,0.00,VWS V14.00,2013-01-25 10:35:00,
2013-01-25 04:36:00,16.6,10.7,30.19,SW,236,2.0,3.0,77,0.00,,SCT036,0.00,0.00,VWS V14.00,2013-01-25 10:36:00,
2013-01-25 04:39:00,16.4,10.5,30.19,SW,236,1.0,3.0,77,0.00,,SCT036,0.00,0.00,VWS V14.00,2013-01-25 10:39:00,
2013-01-25 04:40:00,16.3,10.4,30.19,SW,236,2.0,3.0,77,0.00,,CLR,0.00,0.00,VWS V14.00,2013-01-25 10:40:00,
2013-01-25 04:41:00,16.3,10.7,30.19,SW,236,1.0,3.0,78,0.00,,CLR,0.00,0.00,VWS V14.00,2013-01-25 10:41:00,
2013-01-25 04:44:00,16.2,10.6,30.19,SW,236,1.0,3.0,78,0.00,,CLR,0.00,0.00,VWS V14.00,2013-01-25 10:44:00,
2013-01-25 04:45:00,16.2,10.6,30.19,SW,236,2.0,2.0,78,0.00,,CLR,0.00,0.00,VWS V14.00,2013-01-25 10:45:00,
2013-01-25 04:46:00,16.1,10.5,30.19,SW,236,1.0,2.0,78,0.00,,CLR,0.00,0.00,VWS V14.00,2013-01-25 10:46:00,
2013-01-25 04:49:00,16.1,10.5,30.18,SW,236,1.0,2.0,78,0.00,,CLR,0.00,0.00,VWS V14.00,2013-01-25 10:49:00,
2013-01-25 04:50:00,16.0,10.4,30.18,SW,236,1.0,3.0,78,0.00,,CLR,0.00,0.00,VWS V14.00,2013-01-25 10:50:00,
2013-01-25 04:51:00,16.0,10.4,30.18,SW,236,2.0,3.0,78,0.00,,CLR,0.00,0.00,VWS V14.00,2013-01-25 10:51:00,
2013-01-25 04:54:00,15.9,10.3,30.18,SW,236,2.0,3.0,78,0.00,,CLR,0.00,0.00,VWS V14.00,2013-01-25 10:54:00,
2013-01-25 04:55:00,15.9,10.3,30.18,SW,236,2.0,3.0,78,0.00,,CLR,0.00,0.00,VWS V14.00,2013-01-25 10:55:00,
2013-01-25 04:56:00,15.9,10.6,30.18,SW,236,3.0,3.0,79,0.00,,CLR,0.00,0.00,VWS V14.00,2013-01-25 10:56:00,
2013-01-25 04:59:00,15.8,10.5,30.18,SW,236,2.0,3.0,79,0.00,,CLR,0.00,0.00,VWS V14.00,2013-01-25 10:59:00,
2013-01-25 05:00:00,15.8,10.5,30.18,SW,236,2.0,3.0,79,0.00,,CLR,0.00,0.00,VWS V14.00,2013-01-25 11:00:00,
2013-01-25 05:01:00,15.8,10.5,30.18,SW,236,2.0,3.0,79,0.00,,CLR,0.00,0.00,VWS V14.00,2013-01-25 11:01:00,
2013-01-25 05:04:00,15.7,10.4,30.18,SW,236,2.0,2.0,79,0.00,,CLR,0.00,0.00,VWS V14.00,2013-01-25 11:04:00,
2013-01-25 05:05:00,15.7,10.4,30.19,SW,236,1.0,3.0,79,0.00,,CLR,0.00,0.00,VWS V14.00,2013-01-25 11:05:00,
2013-01-25 05:06:00,15.6,10.3,30.18,SW,236,2.0,2.0,79,0.00,,CLR,0.00,0.00,VWS V14.00,2013-01-25 11:06:00,
2013-01-25 05:07:00,15.5,10.2,30.18,SW,236,1.0,2.0,79,0.00,,CLR,0.00,0.00,VWS V14.00,2013-01-25 11:07:00,
2013-01-25 05:09:00,15.5,10.2,30.19,SW,236,0.0,1.0,79,0.00,,CLR,0.00,0.00,VWS V14.00,2013-01-25 11:09:00,
2013-01-25 05:10:00,15.5,10.2,30.18,SW,236,0.0,2.0,79,0.00,,CLR,0.00,0.00,VWS V14.00,2013-01-25 11:10:00,
2013-01-25 05:11:00,15.4,10.1,30.19,SW,236,0.0,1.0,79,0.00,,CLR,0.00,0.00,VWS V14.00,2013-01-25 11:11:00,
2013-01-25 05:12:00,15.3,10.0,30.19,SW,236,1.0,1.0,79,0.00,,CLR,0.00,0.00,VWS V14.00,2013-01-25 11:12:00,
2013-01-25 05:15:00,15.3,10.2,30.19,SW,236,1.0,1.0,80,0.00,,CLR,0.00,0.00,VWS V14.00,2013-01-25 11:15:00,
2013-01-25 05:16:00,15.3,10.2,30.19,SW,236,1.0,1.0,80,0.00,,CLR,0.00,0.00,VWS V14.00,2013-01-25 11:16:00,
2013-01-25 05:18:00,15.2,10.1,30.19,SW,236,1.0,2.0,80,0.00,,CLR,0.00,0.00,VWS V14.00,2013-01-25 11:18:00,
2013-01-25 05:20:00,15.2,10.1,30.18,SW,236,2.0,3.0,80,0.00,,CLR,0.00,0.00,VWS V14.00,2013-01-25 11:20:00,
2013-01-25 05:21:00,15.2,10.1,30.18,SW,236,3.0,3.0,80,0.00,,CLR,0.00,0.00,VWS V14.00,2013-01-25 11:21:00,
2013-01-25 05:23:00,15.2,10.1,30.18,SW,236,2.0,3.0,80,0.00,,CLR,0.00,0.00,VWS V14.00,2013-01-25 11:23:00,
2013-01-25 05:25:00,15.2,10.1,30.19,SW,236,2.0,2.0,80,0.00,,CLR,0.00,0.00,VWS V14.00,2013-01-25 11:25:00,
2013-01-25 05:26:00,15.2,10.1,30.19,SW,236,1.0,2.0,80,0.00,,CLR,0.00,0.00,VWS V14.00,2013-01-25 11:26:00,
2013-01-25 05:28:00,15.2,10.4,30.18,SW,236,2.0,2.0,81,0.00,,CLR,0.00,0.00,VWS V14.00,2013-01-25 11:28:00,
2013-01-25 05:30:00,15.2,10.4,30.19,SW,236,1.0,2.0,81,0.00,,CLR,0.00,0.00,VWS V14.00,2013-01-25 11:30:00,
2013-01-25 05:31:00,15.2,10.4,30.19,SW,236,1.0,2.0,81,0.00,,CLR,0.00,0.00,VWS V14.00,2013-01-25 11:31:00,
2013-01-25 05:33:00,15.3,10.5,30.19,SW,235,2.0,2.0,81,0.00,,CLR,0.00,0.00,VWS V14.00,2013-01-25 11:33:00,
2013-01-25 05:35:00,15.3,10.5,30.18,SW,236,2.0,2.0,81,0.00,,CLR,0.00,0.00,VWS V14.00,2013-01-25 11:35:00,
2013-01-25 05:36:00,15.3,10.5,30.18,SW,236,2.0,2.0,81,0.00,,CLR,0.00,0.00,VWS V14.00,2013-01-25 11:36:00,
2013-01-25 05:38:00,15.3,10.5,30.18,SW,236,0.0,2.0,81,0.00,,CLR,0.00,0.00,VWS V14.00,2013-01-25 11:38:00,
2013-01-25 05:40:00,15.3,10.5,30.18,SW,236,0.0,2.0,81,0.00,,CLR,0.00,0.00,VWS V14.00,2013-01-25 11:40:00,
2013-01-25 05:41:00,15.3,10.5,30.18,SW,236,2.0,2.0,81,0.00,,CLR,0.00,0.00,VWS V14.00,2013-01-25 11:41:00,
2013-01-25 05:43:00,15.4,10.6,30.18,SW,236,2.0,2.0,81,0.00,,CLR,0.00,0.00,VWS V14.00,2013-01-25 11:43:00,
2013-01-25 05:45:00,15.4,10.6,30.18,SW,236,0.0,2.0,81,0.00,,CLR,0.00,0.00,VWS V14.00,2013-01-25 11:45:00,
2013-01-25 05:46:00,15.4,10.6,30.18,SW,236,2.0,2.0,81,0.00,,CLR,0.00,0.00,VWS V14.00,2013-01-25 11:46:00,
2013-01-25 05:48:00,15.4,10.6,30.18,SW,236,1.0,2.0,81,0.00,,CLR,0.00,0.00,VWS V14.00,2013-01-25 11:48:00,
2013-01-25 05:50:00,15.4,10.6,30.18,SW,236,1.0,2.0,81,0.00,,CLR,0.00,0.00,VWS V14.00,2013-01-25 11:50:00,
2013-01-25 05:51:00,15.3,10.5,30.18,SW,236,1.0,2.0,81,0.00,,CLR,0.00,0.00,VWS V14.00,2013-01-25 11:51:00,
2013-01-25 05:52:00,15.4,10.6,30.18,SW,236,0.0,2.0,81,0.00,,CLR,0.00,0.00,VWS V14.00,2013-01-25 11:52:00,
2013-01-25 05:54:00,15.3,10.5,30.18,SW,236,1.0,2.0,81,0.00,,CLR,0.00,0.00,VWS V14.00,2013-01-25 11:54:00,
2013-01-25 05:55:00,15.3,10.5,30.18,SW,236,1.0,2.0,81,0.00,,CLR,0.00,0.00,VWS V14.00,2013-01-25 11:55:00,
2013-01-25 05:56:00,15.3,10.5,30.18,SW,236,1.0,2.0,81,0.00,,CLR,0.00,0.00,VWS V14.00,2013-01-25 11:56:00,
2013-01-25 05:57:00,15.2,10.4,30.18,SW,236,1.0,2.0,81,0.00,,CLR,0.00,0.00,VWS V14.00,2013-01-25 11:57:00,
2013-01-25 05:59:00,15.2,10.4,30.18,SW,235,0.0,0.0,81,0.00,,CLR,0.00,0.00,VWS V14.00,2013-01-25 11:59:00,
2013-01-25 06:00:00,15.2,10.4,30.18,SW,236,0.0,2.0,81,0.00,,CLR,0.00,0.00,VWS V14.00,2013-01-25 12:00:00,
2013-01-25 06:01:00,15.2,10.4,30.18,SW,236,1.0,2.0,81,0.00,,CLR,0.00,0.00,VWS V14.00,2013-01-25 12:01:00,
2013-01-25 06:02:00,15.1,10.3,30.18,SW,236,2.0,2.0,81,0.00,,CLR,0.00,0.00,VWS V14.00,2013-01-25 12:02:00,
2013-01-25 06:04:00,15.1,10.3,30.18,SW,236,1.0,1.0,81,0.00,,CLR,0.00,0.00,VWS V14.00,2013-01-25 12:04:00,
2013-01-25 06:05:00,15.1,10.3,30.18,SW,236,1.0,2.0,81,0.00,,CLR,0.00,0.00,VWS V14.00,2013-01-25 12:05:00,
2013-01-25 06:07:00,15.0,10.2,30.18,SW,236,1.0,2.0,81,0.00,,CLR,0.00,0.00,VWS V14.00,2013-01-25 12:07:00,
2013-01-25 06:09:00,14.9,10.1,30.18,SW,236,3.0,3.0,81,0.00,,CLR,0.00,0.00,VWS V14.00,2013-01-25 12:09:00,
2013-01-25 06:10:00,15.0,10.2,30.18,SW,236,1.0,2.0,81,0.00,,CLR,0.00,0.00,VWS V14.00,2013-01-25 12:10:00,
2013-01-25 06:12:00,14.9,10.1,30.18,SW,236,2.0,3.0,81,0.00,,CLR,0.00,0.00,VWS V14.00,2013-01-25 12:12:00,
2013-01-25 06:14:00,14.8,10.3,30.18,SW,236,2.0,2.0,82,0.00,,CLR,0.00,0.00,VWS V14.00,2013-01-25 12:14:00,
2013-01-25 06:15:00,14.8,10.0,30.18,SW,236,2.0,3.0,81,0.00,,CLR,0.00,0.00,VWS V14.00,2013-01-25 12:15:00,
2013-01-25 06:17:00,14.7,10.2,30.18,SW,236,2.0,3.0,82,0.00,,CLR,0.00,0.00,VWS V14.00,2013-01-25 12:17:00,
2013-01-25 06:19:00,14.6,10.1,30.18,SW,236,3.0,3.0,82,0.00,,CLR,0.00,0.00,VWS V14.00,2013-01-25 12:19:00,
2013-01-25 06:20:00,14.6,10.1,30.18,SW,236,3.0,3.0,82,0.00,,CLR,0.00,0.00,VWS V14.00,2013-01-25 12:20:00,
2013-01-25 06:22:00,14.6,10.1,30.18,SW,236,1.0,3.0,82,0.00,,CLR,0.00,0.00,VWS V14.00,2013-01-25 12:22:00,
2013-01-25 06:24:00,14.5,10.0,30.18,SW,236,1.0,2.0,82,0.00,,CLR,0.00,0.00,VWS V14.00,2013-01-25 12:24:00,
2013-01-25 06:25:00,14.6,10.1,30.18,SW,236,1.0,3.0,82,0.00,,CLR,0.00,0.00,VWS V14.00,2013-01-25 12:25:00,
2013-01-25 06:27:00,14.5,10.0,30.18,SW,235,1.0,2.0,82,0.00,,CLR,0.00,0.00,VWS V14.00,2013-01-25 12:27:00,
2013-01-25 06:28:00,14.5,10.0,30.18,SW,236,2.0,2.0,82,0.00,,CLR,0.00,0.00,VWS V14.00,2013-01-25 12:28:00,
2013-01-25 06:30:00,14.5,10.0,30.18,SW,236,3.0,3.0,82,0.00,,CLR,0.00,0.00,VWS V14.00,2013-01-25 12:30:00,
2013-01-25 06:32:00,14.5,10.3,30.18,SW,236,0.0,3.0,83,0.00,,CLR,0.00,0.00,VWS V14.00,2013-01-25 12:32:00,
2013-01-25 06:33:00,14.5,10.3,30.18,SW,236,2.0,3.0,83,0.00,,CLR,0.00,0.00,VWS V14.00,2013-01-25 12:33:00,
2013-01-25 06:35:00,14.5,10.3,30.18,SW,236,1.0,2.0,83,0.00,,CLR,0.00,0.00,VWS V14.00,2013-01-25 12:35:00,
2013-01-25 06:37:00,14.4,10.2,30.18,SW,236,2.0,3.0,83,0.00,,CLR,0.00,0.00,VWS V14.00,2013-01-25 12:37:00,
2013-01-25 06:38:00,14.5,10.3,30.18,SW,236,1.0,3.0,83,0.00,,CLR,0.00,0.00,VWS V14.00,2013-01-25 12:38:00,
2013-01-25 06:40:00,14.5,10.3,30.18,SW,236,1.0,2.0,83,0.00,,CLR,0.00,0.00,VWS V14.00,2013-01-25 12:40:00,
2013-01-25 06:42:00,14.5,10.3,30.18,SW,236,2.0,4.0,83,0.00,,CLR,0.00,0.00,VWS V14.00,2013-01-25 12:42:00,
2013-01-25 06:43:00,14.5,10.3,30.18,SW,236,2.0,4.0,83,0.00,,CLR,0.00,0.00,VWS V14.00,2013-01-25 12:43:00,
2013-01-25 06:45:00,14.5,10.3,30.18,SW,236,2.0,3.0,83,0.00,,CLR,0.00,0.00,VWS V14.00,2013-01-25 12:45:00,
2013-01-25 06:47:00,14.6,10.7,30.18,SW,236,2.0,3.0,84,0.00,,CLR,0.00,0.00,VWS V14.00,2013-01-25 12:47:00,
2013-01-25 06:49:00,14.6,10.7,30.18,SW,236,3.0,3.0,84,0.00,,CLR,0.00,0.00,VWS V14.00,2013-01-25 12:49:00,
2013-01-25 06:50:00,14.6,10.4,30.18,SW,235,0.0,4.0,83,0.00,,CLR,0.00,0.00,VWS V14.00,2013-01-25 12:50:00,
2013-01-25 06:52:00,14.7,10.8,30.18,SW,236,0.0,4.0,84,0.00,,CLR,0.00,0.00,VWS V14.00,2013-01-25 12:52:00,
2013-01-25 06:53:00,14.7,10.8,30.18,SW,236,0.0,4.0,84,0.00,,CLR,0.00,0.00,VWS V14.00,2013-01-25 12:53:00,
2013-01-25 06:54:00,14.7,10.8,30.18,SW,236,0.0,4.0,84,0.00,,CLR,0.00,0.00,VWS V14.00,2013-01-25 12:54:00,
2013-01-25 06:55:00,14.7,10.8,30.18,SW,236,0.0,4.0,84,0.00,,CLR,0.00,0.00,VWS V14.00,2013-01-25 12:55:00,
2013-01-25 06:56:00,14.7,10.8,30.18,SW,236,1.0,1.0,84,0.00,,CLR,0.00,0.00,VWS V14.00,2013-01-25 12:56:00,
2013-01-25 06:57:00,14.7,10.8,30.18,SW,235,0.0,3.0,84,0.00,,CLR,0.00,0.00,VWS V14.00,2013-01-25 12:57:00,
2013-01-25 06:58:00,14.7,10.8,30.18,SW,235,1.0,3.0,84,0.00,,CLR,0.00,0.00,VWS V14.00,2013-01-25 12:58:00,
2013-01-25 06:59:00,14.7,10.8,30.18,SW,236,2.0,2.0,84,0.00,,CLR,0.00,0.00,VWS V14.00,2013-01-25 12:59:00,
2013-01-25 07:00:00,14.7,10.8,30.18,SW,236,2.0,3.0,84,0.00,,CLR,0.00,0.00,VWS V14.00,2013-01-25 13:00:00,
2013-01-25 07:01:00,14.7,10.8,30.18,SW,236,2.0,3.0,84,0.00,,CLR,0.00,0.00,VWS V14.00,2013-01-25 13:01:00,
2013-01-25 07:02:00,14.8,10.9,30.18,SW,236,1.0,3.0,84,0.00,,CLR,0.00,0.00,VWS V14.00,2013-01-25 13:02:00,
2013-01-25 07:03:00,14.7,10.8,30.18,SW,235,0.0,3.0,84,0.00,,CLR,0.00,0.00,VWS V14.00,2013-01-25 13:03:00,
2013-01-25 07:04:00,14.7,10.8,30.18,SW,236,2.0,2.0,84,0.00,,CLR,0.00,0.00,VWS V14.00,2013-01-25 13:04:00,
2013-01-25 07:05:00,14.7,10.8,30.18,SW,236,1.0,3.0,84,0.00,,CLR,0.00,0.00,VWS V14.00,2013-01-25 13:05:00,
2013-01-25 07:06:00,14.7,10.8,30.19,SW,236,0.0,2.0,84,0.00,,CLR,0.00,0.00,VWS V14.00,2013-01-25 13:06:00,
2013-01-25 07:07:00,14.6,10.7,30.18,SW,235,2.0,2.0,84,0.00,,CLR,0.00,0.00,VWS V14.00,2013-01-25 13:07:00,
2013-01-25 07:08:00,14.6,10.7,30.18,SW,236,1.0,2.0,84,0.00,,CLR,0.00,0.00,VWS V14.00,2013-01-25 13:08:00,
2013-01-25 07:09:00,14.6,10.7,30.18,SW,235,1.0,2.0,84,0.00,,CLR,0.00,0.00,VWS V14.00,2013-01-25 13:09:00,
2013-01-25 07:10:00,14.6,10.7,30.18,SW,236,2.0,2.0,84,0.00,,CLR,0.00,0.00,VWS V14.00,2013-01-25 13:10:00,
2013-01-25 07:11:00,14.6,10.7,30.18,SW,236,2.0,3.0,84,0.00,,CLR,0.00,0.00,VWS V14.00,2013-01-25 13:11:00,
2013-01-25 07:12:00,14.5,10.6,30.18,SW,236,2.0,3.0,84,0.00,,CLR,0.00,0.00,VWS V14.00,2013-01-25 13:12:00,
2013-01-25 07:13:00,14.5,10.6,30.18,SW,236,2.0,3.0,84,0.00,,CLR,0.00,0.00,VWS V14.00,2013-01-25 13:13:00,
2013-01-25 07:14:00,14.5,10.6,30.18,SW,236,1.0,2.0,84,0.00,,CLR,0.00,0.00,VWS V14.00,2013-01-25 13:14:00,
2013-01-25 07:15:00,14.5,10.6,30.18,SW,236,1.0,3.0,84,0.00,,CLR,0.00,0.00,VWS V14.00,2013-01-25 13:15:00,
2013-01-25 07:16:00,14.5,10.6,30.18,SW,235,2.0,2.0,84,0.00,,CLR,0.00,0.00,VWS V14.00,2013-01-25 13:16:00,
2013-01-25 07:17:00,14.5,10.6,30.18,SW,236,1.0,2.0,84,0.00,,CLR,0.00,0.00,VWS V14.00,2013-01-25 13:17:00,
2013-01-25 07:18:00,14.4,10.5,30.18,SW,235,2.0,2.0,84,0.00,,CLR,0.00,0.00,VWS V14.00,2013-01-25 13:18:00,
2013-01-25 07:20:00,14.4,10.5,30.18,SW,236,0.0,1.0,84,0.00,,CLR,0.00,0.00,VWS V14.00,2013-01-25 13:20:00,
2013-01-25 07:21:00,14.4,10.5,30.18,SW,235,1.0,1.0,84,0.00,,CLR,0.00,0.00,VWS V14.00,2013-01-25 13:21:00,
2013-01-25 07:23:00,14.4,10.5,30.18,SW,236,2.0,3.0,84,0.00,,CLR,0.00,0.00,VWS V14.00,2013-01-25 13:23:00,
2013-01-25 07:25:00,14.3,10.4,30.18,SW,236,3.0,3.0,84,0.00,,CLR,0.00,0.00,VWS V14.00,2013-01-25 13:25:00,
2013-01-25 07:26:00,14.3,10.4,30.18,SW,236,2.0,3.0,84,0.00,,CLR,0.00,0.00,VWS V14.00,2013-01-25 13:26:00,
2013-01-25 07:28:00,14.2,10.3,30.18,SW,235,2.0,3.0,84,0.00,,CLR,0.00,0.00,VWS V14.00,2013-01-25 13:28:00,
2013-01-25 07:30:00,14.1,10.4,30.18,SW,223,2.0,5.0,85,0.00,,CLR,0.00,0.00,VWS V14.00,2013-01-25 13:30:00,
2013-01-25 07:31:00,14.2,10.5,30.17,SW,223,2.0,5.0,85,0.00,,CLR,0.00,0.00,VWS V14.00,2013-01-25 13:31:00,
2013-01-25 07:33:00,14.3,10.6,30.17,SW,223,4.0,5.0,85,0.00,,CLR,0.00,0.00,VWS V14.00,2013-01-25 13:33:00,
2013-01-25 07:35:00,14.3,10.6,30.17,SW,223,3.0,4.0,85,0.00,,CLR,0.00,0.00,VWS V14.00,2013-01-25 13:35:00,
2013-01-25 07:37:00,14.4,10.7,30.17,SSW,213,3.0,4.0,85,0.00,,CLR,0.00,5.00,VWS V14.00,2013-01-25 13:37:00,
2013-01-25 07:38:00,14.4,10.7,30.17,SSW,213,2.0,5.0,85,0.00,,CLR,0.00,5.00,VWS V14.00,2013-01-25 13:38:00,
2013-01-25 07:39:00,14.4,10.7,30.17,SSW,213,2.0,5.0,85,0.00,,CLR,0.00,5.00,VWS V14.00,2013-01-25 13:39:00,
2013-01-25 07:40:00,14.5,10.8,30.17,SW,219,5.0,5.0,85,0.00,,CLR,0.00,5.00,VWS V14.00,2013-01-25 13:40:00,
2013-01-25 07:42:00,14.5,10.8,30.17,SW,218,2.0,5.0,85,0.00,,CLR,0.00,7.00,VWS V14.00,2013-01-25 13:42:00,
2013-01-25 07:43:00,14.5,10.8,30.17,SW,219,2.0,5.0,85,0.00,,CLR,0.00,7.00,VWS V14.00,2013-01-25 13:43:00,
2013-01-25 07:44:00,14.5,10.8,30.17,SW,218,3.0,5.0,85,0.00,,CLR,0.00,7.00,VWS V14.00,2013-01-25 13:44:00,
2013-01-25 07:45:00,14.6,10.9,30.17,SW,219,2.0,3.0,85,0.00,,CLR,0.00,9.00,VWS V14.00,2013-01-25 13:45:00,
2013-01-25 07:47:00,14.6,10.9,30.16,SW,217,3.0,4.0,85,0.00,,CLR,0.00,11.00,VWS V14.00,2013-01-25 13:47:00,
2013-01-25 07:49:00,14.6,10.9,30.16,SW,216,4.0,4.0,85,0.00,,CLR,0.00,11.00,VWS V14.00,2013-01-25 13:49:00,
2013-01-25 07:50:00,14.6,10.9,30.16,SW,216,3.0,4.0,85,0.00,,CLR,0.00,11.00,VWS V14.00,2013-01-25 13:50:00,
2013-01-25 07:52:00,14.6,10.9,30.16,SSW,208,3.0,5.0,85,0.00,,CLR,0.00,12.00,VWS V14.00,2013-01-25 13:52:00,
2013-01-25 07:54:00,14.6,10.9,30.16,SSW,208,4.0,5.0,85,0.00,,CLR,0.00,14.00,VWS V14.00,2013-01-25 13:54:00,
2013-01-25 07:55:00,14.6,10.9,30.16,SSW,209,3.0,4.0,85,0.00,,CLR,0.00,14.00,VWS V14.00,2013-01-25 13:55:00,
2013-01-25 07:57:00,14.6,10.9,30.16,SW,218,4.0,5.0,85,0.00,,CLR,0.00,16.00,VWS V14.00,2013-01-25 13:57:00,
2013-01-25 07:59:00,14.7,11.0,30.16,SW,214,3.0,5.0,85,0.00,,CLR,0.00,16.00,VWS V14.00,2013-01-25 13:59:00,
2013-01-25 08:00:00,14.7,11.0,30.16,SSW,203,3.0,5.0,85,0.00,,CLR,0.00,18.00,VWS V14.00,2013-01-25 14:00:00,
2013-01-25 08:03:00,14.8,11.1,30.16,SSW,200,3.0,5.0,85,0.00,,CLR,0.00,18.00,VWS V14.00,2013-01-25 14:03:00,
2013-01-25 08:04:00,14.8,11.1,30.16,SSW,200,2.0,3.0,85,0.00,,CLR,0.00,19.00,VWS V14.00,2013-01-25 14:04:00,
2013-01-25 08:05:00,14.8,11.1,30.16,SSW,209,4.0,5.0,85,0.00,,CLR,0.00,19.00,VWS V14.00,2013-01-25 14:05:00,
2013-01-25 08:08:00,14.8,11.1,30.16,SW,217,4.0,5.0,85,0.00,,CLR,0.00,21.00,VWS V14.00,2013-01-25 14:08:00,
2013-01-25 08:09:00,14.9,11.2,30.15,SSW,209,4.0,4.0,85,0.00,,CLR,0.00,21.00,VWS V14.00,2013-01-25 14:09:00,
2013-01-25 08:10:00,14.9,11.2,30.16,SSW,192,3.0,5.0,85,0.00,,CLR,0.00,21.00,VWS V14.00,2013-01-25 14:10:00,
2013-01-25 08:11:00,14.9,11.2,30.16,SSW,205,5.0,5.0,85,0.00,,CLR,0.00,21.00,VWS V14.00,2013-01-25 14:11:00,
2013-01-25 08:13:00,15.0,11.3,30.15,SSW,212,2.0,5.0,85,0.00,,CLR,0.00,23.00,VWS V14.00,2013-01-25 14:13:00,
2013-01-25 08:14:00,15.1,11.4,30.15,SSW,204,4.0,5.0,85,0.00,,CLR,0.00,23.00,VWS V14.00,2013-01-25 14:14:00,
2013-01-25 08:15:00,15.0,11.3,30.15,SSW,205,4.0,6.0,85,0.00,,CLR,0.00,23.00,VWS V14.00,2013-01-25 14:15:00,
2013-01-25 08:16:00,15.2,11.5,30.15,SSW,202,2.0,5.0,85,0.00,,CLR,0.00,30.00,VWS V14.00,2013-01-25 14:16:00,
2013-01-25 08:18:00,15.3,11.6,30.15,SSW,210,3.0,5.0,85,0.00,,CLR,0.00,42.00,VWS V14.00,2013-01-25 14:18:00,
2013-01-25 08:19:00,15.3,11.6,30.16,SSW,209,3.0,4.0,85,0.00,,CLR,0.00,56.00,VWS V14.00,2013-01-25 14:19:00,
2013-01-25 08:20:00,15.3,11.6,30.16,SW,219,4.0,6.0,85,0.00,,CLR,0.00,53.00,VWS V14.00,2013-01-25 14:20:00,
2013-01-25 08:21:00,15.4,11.4,30.16,SW,223,3.0,7.0,84,0.00,,CLR,0.00,54.00,VWS V14.00,2013-01-25 14:21:00,
2013-01-25 08:23:00,15.5,11.5,30.16,SSW,194,4.0,7.0,84,0.00,,CLR,0.00,54.00,VWS V14.00,2013-01-25 14:23:00,
2013-01-25 08:24:00,15.7,11.7,30.16,SW,220,1.0,4.0,84,0.00,,CLR,0.00,60.00,VWS V14.00,2013-01-25 14:24:00,
2013-01-25 08:25:00,15.7,11.7,30.16,SW,219,2.0,4.0,84,0.00,,CLR,0.00,60.00,VWS V14.00,2013-01-25 14:25:00,
2013-01-25 08:26:00,15.9,11.9,30.16,SW,218,3.0,5.0,84,0.00,,CLR,0.00,62.00,VWS V14.00,2013-01-25 14:26:00,
2013-01-25 08:28:00,16.0,11.8,30.16,SW,228,1.0,5.0,83,0.00,,CLR,0.00,56.00,VWS V14.00,2013-01-25 14:28:00,
2013-01-25 08:29:00,16.2,12.0,30.16,WSW,238,2.0,2.0,83,0.00,,CLR,0.00,76.00,VWS V14.00,2013-01-25 14:29:00,
2013-01-25 08:30:00,16.2,12.0,30.16,WSW,238,2.0,2.0,83,0.00,,CLR,0.00,76.00,VWS V14.00,2013-01-25 14:30:00,
2013-01-25 08:31:00,16.4,11.9,30.16,SSW,203,2.0,3.0,82,0.00,,CLR,0.00,98.00,VWS V14.00,2013-01-25 14:31:00,
2013-01-25 08:33:00,16.5,12.0,30.16,SSW,207,4.0,4.0,82,0.00,,CLR,0.00,104.00,VWS V14.00,2013-01-25 14:33:00,
2013-01-25 08:34:00,16.7,12.2,30.16,SW,234,3.0,3.0,82,0.00,,CLR,0.00,118.00,VWS V14.00,2013-01-25 14:34:00,
2013-01-25 08:35:00,16.8,12.3,30.16,SW,233,2.0,3.0,82,0.00,,CLR,0.00,118.00,VWS V14.00,2013-01-25 14:35:00,
2013-01-25 08:36:00,17.0,12.2,30.17,SW,234,2.0,3.0,81,0.00,,CLR,0.00,107.00,VWS V14.00,2013-01-25 14:36:00,
2013-01-25 08:38:00,17.1,12.3,30.17,SW,220,3.0,5.0,81,0.00,,CLR,0.00,125.00,VWS V14.00,2013-01-25 14:38:00,
2013-01-25 08:40:00,17.3,12.2,30.17,WSW,257,2.0,3.0,80,0.00,,CLR,0.00,120.00,VWS V14.00,2013-01-25 14:40:00,
2013-01-25 08:42:00,17.6,12.2,30.17,West,274,2.0,6.0,79,0.00,,CLR,0.00,113.00,VWS V14.00,2013-01-25 14:42:00,
2013-01-25 08:43:00,17.7,12.3,30.17,West,263,3.0,6.0,79,0.00,,CLR,0.00,88.00,VWS V14.00,2013-01-25 14:43:00,
2013-01-25 08:45:00,17.8,12.1,30.17,WSW,243,5.0,7.0,78,0.00,,CLR,0.00,86.00,VWS V14.00,2013-01-25 14:45:00,
2013-01-25 08:47:00,18.0,12.3,30.17,West,275,2.0,7.0,78,0.00,,CLR,0.00,105.00,VWS V14.00,2013-01-25 14:47:00,
2013-01-25 08:48:00,18.1,12.1,30.17,SW,224,5.0,7.0,77,0.00,,CLR,0.00,93.00,VWS V14.00,2013-01-25 14:48:00,
2013-01-25 08:50:00,18.2,12.2,30.17,WSW,244,2.0,5.0,77,0.00,,CLR,0.00,81.00,VWS V14.00,2013-01-25 14:50:00,
2013-01-25 08:51:00,18.3,12.3,30.17,West,263,3.0,5.0,77,0.00,,CLR,0.00,74.00,VWS V14.00,2013-01-25 14:51:00,
2013-01-25 08:52:00,18.4,12.1,30.17,WSW,245,5.0,6.0,76,0.00,,CLR,0.00,77.00,VWS V14.00,2013-01-25 14:52:00,
2013-01-25 08:53:00,18.6,12.3,30.17,WSW,244,4.0,8.0,76,0.00,,CLR,0.00,53.00,VWS V14.00,2013-01-25 14:53:00,
2013-01-25 08:55:00,18.7,12.4,30.17,West,279,3.0,4.0,76,0.00,,CLR,0.00,56.00,VWS V14.00,2013-01-25 14:55:00,
2013-01-25 08:56:00,18.8,12.5,30.17,West,279,0.0,4.0,76,0.00,,CLR,0.00,62.00,VWS V14.00,2013-01-25 14:56:00,
2013-01-25 08:57:00,18.9,12.3,30.18,WNW,293,0.0,4.0,75,0.00,,CLR,0.00,65.00,VWS V14.00,2013-01-25 14:57:00,
2013-01-25 08:58:00,19.0,12.4,30.18,WNW,291,3.0,4.0,75,0.00,,CLR,0.00,63.00,VWS V14.00,2013-01-25 14:58:00,
2013-01-25 09:00:00,19.2,12.6,30.17,West,264,5.0,5.0,75,0.00,,CLR,0.00,70.00,VWS V14.00,2013-01-25 15:00:00,
2013-01-25 09:01:00,19.2,12.3,30.17,WNW,291,6.0,9.0,74,0.00,,CLR,0.00,70.00,VWS V14.00,2013-01-25 15:01:00,
2013-01-25 09:02:00,19.3,12.4,30.17,West,263,5.0,10.0,74,0.00,,CLR,0.00,79.00,VWS V14.00,2013-01-25 15:02:00,
2013-01-25 09:03:00,19.4,12.5,30.17,West,270,1.0,10.0,74,0.00,,CLR,0.00,81.00,VWS V14.00,2013-01-25 15:03:00,
2013-01-25 09:05:00,19.5,12.6,30.18,WNW,290,2.0,7.0,74,0.00,,CLR,0.00,90.00,VWS V14.00,2013-01-25 15:05:00,
2013-01-25 09:06:00,19.6,12.4,30.17,West,264,2.0,7.0,73,0.00,,CLR,0.00,90.00,VWS V14.00,2013-01-25 15:06:00,
2013-01-25 09:07:00,19.7,12.5,30.17,West,279,0.0,7.0,73,0.00,,CLR,0.00,86.00,VWS V14.00,2013-01-25 15:07:00,
2013-01-25 09:08:00,19.8,12.6,30.17,West,273,3.0,8.0,73,0.00,,CLR,0.00,76.00,VWS V14.00,2013-01-25 15:08:00,
2013-01-25 09:10:00,19.9,12.7,30.17,West,268,6.0,7.0,73,0.00,,CLR,0.00,49.00,VWS V14.00,2013-01-25 15:10:00,
2013-01-25 09:11:00,20.0,12.8,30.17,West,267,2.0,7.0,73,0.00,,CLR,0.00,62.00,VWS V14.00,2013-01-25 15:11:00,
2013-01-25 09:12:00,20.1,12.9,30.17,WNW,297,5.0,7.0,73,0.00,,CLR,0.00,67.00,VWS V14.00,2013-01-25 15:12:00,
2013-01-25 09:14:00,20.2,12.9,30.17,West,274,2.0,2.0,73,0.00,,CLR,0.00,88.00,VWS V14.00,2013-01-25 15:14:00,
2013-01-25 09:15:00,20.3,13.0,30.17,WNW,287,5.0,6.0,73,0.00,,CLR,0.00,102.00,VWS V14.00,2013-01-25 15:15:00,
2013-01-25 09:16:00,20.3,12.7,30.17,West,279,6.0,6.0,72,0.00,,CLR,0.00,134.00,VWS V14.00,2013-01-25 15:16:00,
2013-01-25 09:18:00,20.4,12.8,30.17,WNW,282,3.0,6.0,72,0.00,,CLR,0.00,137.00,VWS V14.00,2013-01-25 15:18:00,
2013-01-25 09:19:00,20.5,12.9,30.17,West,267,3.0,4.0,72,0.00,,CLR,0.00,132.00,VWS V14.00,2013-01-25 15:19:00,
2013-01-25 09:20:00,20.6,13.0,30.18,West,267,2.0,4.0,72,0.00,,CLR,0.00,158.00,VWS V14.00,2013-01-25 15:20:00,
2013-01-25 09:22:00,20.7,13.1,30.18,WSW,248,2.0,6.0,72,0.00,,CLR,0.00,139.00,VWS V14.00,2013-01-25 15:22:00,
2013-01-25 09:23:00,20.8,13.2,30.18,WNW,301,5.0,6.0,72,0.00,,CLR,0.00,67.00,VWS V14.00,2013-01-25 15:23:00,
2013-01-25 09:25:00,21.0,13.4,30.17,West,279,3.0,4.0,72,0.00,,CLR,0.00,81.00,VWS V14.00,2013-01-25 15:25:00,
2013-01-25 09:26:00,21.0,13.4,30.17,WNW,292,3.0,5.0,72,0.00,,CLR,0.00,63.00,VWS V14.00,2013-01-25 15:26:00,
2013-01-25 09:27:00,21.1,13.5,30.17,West,269,3.0,5.0,72,0.00,,CLR,0.00,56.00,VWS V14.00,2013-01-25 15:27:00,
2013-01-25 09:28:00,21.2,13.6,30.17,West,274,4.0,7.0,72,0.00,,CLR,0.00,58.00,VWS V14.00,2013-01-25 15:28:00,
2013-01-25 09:30:00,21.3,13.7,30.18,WNW,290,1.0,5.0,72,0.00,,CLR,0.00,79.00,VWS V14.00,2013-01-25 15:30:00,
2013-01-25 09:31:00,21.3,13.7,30.18,WNW,289,0.0,5.0,72,0.00,,CLR,0.00,95.00,VWS V14.00,2013-01-25 15:31:00,
2013-01-25 09:32:00,21.5,13.9,30.18,NW,321,3.0,5.0,72,0.00,,CLR,0.00,120.00,VWS V14.00,2013-01-25 15:32:00,
2013-01-25 09:33:00,21.6,13.7,30.18,WNW,294,5.0,6.0,71,0.00,,CLR,0.00,151.00,VWS V14.00,2013-01-25 15:33:00,
2013-01-25 09:35:00,21.8,13.9,30.18,WNW,289,2.0,7.0,71,0.00,,CLR,0.00,181.00,VWS V14.00,2013-01-25 15:35:00,
2013-01-25 09:37:00,21.9,14.0,30.18,NW,304,8.0,8.0,71,0.00,,CLR,0.00,202.00,VWS V14.00,2013-01-25 15:37:00,
2013-01-25 09:39:00,22.1,14.1,30.18,WNW,297,0.0,8.0,71,0.00,,CLR,0.00,148.00,VWS V14.00,2013-01-25 15:39:00,
2013-01-25 09:40:00,22.1,14.1,30.18,WNW,296,0.0,8.0,71,0.00,,CLR,0.00,148.00,VWS V14.00,2013-01-25 15:40:00,
2013-01-25 09:41:00,22.3,14.3,30.18,NW,308,5.0,5.0,71,0.00,,CLR,0.00,158.00,VWS V14.00,2013-01-25 15:41:00,
2013-01-25 09:42:00,22.5,14.5,30.18,WNW,284,7.0,9.0,71,0.00,,CLR,0.00,158.00,VWS V14.00,2013-01-25 15:42:00,
2013-01-25 09:43:00,22.6,14.6,30.18,WNW,288,6.0,9.0,71,0.00,,CLR,0.00,158.00,VWS V14.00,2013-01-25 15:43:00,
2013-01-25 09:44:00,22.7,14.7,30.18,NW,316,4.0,9.0,71,0.00,,CLR,0.00,193.00,VWS V14.00,2013-01-25 15:44:00,
2013-01-25 09:45:00,22.7,14.7,30.18,NW,305,2.0,9.0,71,0.00,,CLR,0.00,193.00,VWS V14.00,2013-01-25 15:45:00,
2013-01-25 09:46:00,23.0,15.0,30.18,NW,310,4.0,9.0,71,0.00,,CLR,0.00,193.00,VWS V14.00,2013-01-25 15:46:00,
2013-01-25 09:47:00,23.2,15.2,30.18,WNW,297,5.0,9.0,71,0.00,,CLR,0.00,127.00,VWS V14.00,2013-01-25 15:47:00,
2013-01-25 09:48:00,23.2,15.2,30.18,WNW,302,6.0,9.0,71,0.00,,CLR,0.00,127.00,VWS V14.00,2013-01-25 15:48:00,
2013-01-25 09:49:00,23.3,15.3,30.18,NW,317,5.0,12.0,71,0.00,,CLR,0.00,174.00,VWS V14.00,2013-01-25 15:49:00,
2013-01-25 09:50:00,23.4,15.4,30.18,NW,315,4.0,12.0,71,0.00,,CLR,0.00,167.00,VWS V14.00,2013-01-25 15:50:00,
2013-01-25 09:51:00,23.6,15.6,30.18,WNW,297,5.0,9.0,71,0.00,,CLR,0.00,211.00,VWS V14.00,2013-01-25 15:51:00,
2013-01-25 09:52:00,23.8,15.5,30.18,NW,312,11.0,13.0,70,0.00,,CLR,0.00,221.00,VWS V14.00,2013-01-25 15:52:00,
2013-01-25 09:53:00,23.9,15.6,30.18,West,274,9.0,13.0,70,0.00,,CLR,0.00,149.00,VWS V14.00,2013-01-25 15:53:00,
2013-01-25 09:54:00,24.0,16.0,30.18,NNW,329,9.0,10.0,71,0.00,,CLR,0.00,142.00,VWS V14.00,2013-01-25 15:54:00,
2013-01-25 09:55:00,23.9,15.9,30.18,NNW,339,10.0,13.0,71,0.00,,CLR,0.00,149.00,VWS V14.00,2013-01-25 15:55:00,
2013-01-25 09:56:00,24.3,16.3,30.18,WNW,302,9.0,11.0,71,0.00,,CLR,0.00,137.00,VWS V14.00,2013-01-25 15:56:00,
2013-01-25 09:58:00,24.4,16.0,30.18,NW,313,5.0,11.0,70,0.00,,CLR,0.00,135.00,VWS V14.00,2013-01-25 15:58:00,
2013-01-25 09:59:00,24.4,16.0,30.18,WNW,297,4.0,11.0,70,0.00,,CLR,0.00,186.00,VWS V14.00,2013-01-25 15:59:00,
2013-01-25 10:00:00,24.5,16.1,30.18,WNW,291,7.0,11.0,70,0.00,,CLR,0.00,186.00,VWS V14.00,2013-01-25 16:00:00,
2013-01-25 10:02:00,24.7,16.3,30.18,WNW,292,4.0,8.0,70,0.00,,CLR,0.00,225.00,VWS V14.00,2013-01-25 16:02:00,
2013-01-25 10:03:00,24.8,16.4,30.18,WNW,284,4.0,12.0,70,0.00,,CLR,0.00,274.00,VWS V14.00,2013-01-25 16:03:00,
2013-01-25 10:04:00,24.8,16.1,30.18,WNW,297,4.0,13.0,69,0.00,,CLR,0.00,272.00,VWS V14.00,2013-01-25 16:04:00,
2013-01-25 10:05:00,24.8,16.1,30.18,WNW,297,4.0,13.0,69,0.00,,CLR,0.00,272.00,VWS V14.00,2013-01-25 16:05:00,
2013-01-25 10:07:00,25.0,16.6,30.18,NW,311,8.0,15.0,70,0.00,,CLR,0.00,183.00,VWS V14.00,2013-01-25 16:07:00,
2013-01-25 10:08:00,25.1,16.7,30.18,West,263,9.0,15.0,70,0.00,,CLR,0.00,193.00,VWS V14.00,2013-01-25 16:08:00,
2013-01-25 10:09:00,25.1,16.7,30.18,NW,305,11.0,13.0,70,0.00,,CLR,0.00,246.00,VWS V14.00,2013-01-25 16:09:00,
2013-01-25 10:10:00,25.1,16.7,30.18,NW,313,10.0,15.0,70,0.00,,,0.00,246.00,VWS V14.00,2013-01-25 16:10:00,
2013-01-25 10:12:00,25.2,16.8,30.18,NW,325,6.0,13.0,70,0.00,,CLR,0.00,88.00,VWS V14.00,2013-01-25 16:12:00,
2013-01-25 10:13:00,25.3,16.9,30.18,WNW,284,7.0,13.0,70,0.00,,CLR,0.00,44.00,VWS V14.00,2013-01-25 16:13:00,
2013-01-25 10:14:00,25.3,16.9,30.18,NW,321,5.0,7.0,70,0.00,,CLR,0.00,44.00,VWS V14.00,2013-01-25 16:14:00,
2013-01-25 10:15:00,25.3,16.9,30.18,WNW,300,7.0,13.0,70,0.00,,CLR,0.00,44.00,VWS V14.00,2013-01-25 16:15:00,
2013-01-25 10:17:00,25.6,17.2,30.18,West,281,9.0,12.0,70,0.00,,CLR,0.00,44.00,VWS V14.00,2013-01-25 16:17:00,
2013-01-25 10:18:00,25.6,17.2,30.19,NNW,329,15.0,15.0,70,0.00,,CLR,0.00,54.00,VWS V14.00,2013-01-25 16:18:00,
2013-01-25 10:19:00,25.6,17.2,30.19,WNW,290,7.0,12.0,70,0.00,,CLR,0.00,58.00,VWS V14.00,2013-01-25 16:19:00,
2013-01-25 10:20:00,25.7,17.3,30.19,NW,324,12.0,15.0,70,0.00,,CLR,0.00,58.00,VWS V14.00,2013-01-25 16:20:00,
2013-01-25 10:22:00,25.8,17.4,30.19,NW,306,6.0,13.0,70,0.00,,CLR,0.00,53.00,VWS V14.00,2013-01-25 16:22:00,
2013-01-25 10:23:00,25.9,17.5,30.19,WNW,295,9.0,13.0,70,0.00,,CLR,0.00,54.00,VWS V14.00,2013-01-25 16:23:00,
2013-01-25 10:24:00,25.9,17.5,30.19,NNW,333,6.0,8.0,70,0.00,,CLR,0.00,58.00,VWS V14.00,2013-01-25 16:24:00,
2013-01-25 10:25:00,25.9,17.5,30.19,NW,322,6.0,13.0,70,0.00,,CLR,0.00,58.00,VWS V14.00,2013-01-25 16:25:00,
2013-01-25 10:27:00,26.1,17.7,30.18,WNW,289,12.0,12.0,70,0.00,,CLR,0.00,128.00,VWS V14.00,2013-01-25 16:27:00,
2013-01-25 10:29:00,26.1,17.3,30.18,NW,320,5.0,12.0,69,0.00,,CLR,0.00,90.00,VWS V14.00,2013-01-25 16:29:00,
2013-01-25 10:30:00,26.2,17.4,30.19,WNW,284,14.0,14.0,69,0.00,,CLR,0.00,69.00,VWS V14.00,2013-01-25 16:30:00,
2013-01-25 10:33:00,26.3,17.5,30.19,West,273,3.0,15.0,69,0.00,,CLR,0.00,141.00,VWS V14.00,2013-01-25 16:33:00,
2013-01-25 10:34:00,26.3,17.5,30.19,NW,306,5.0,7.0,69,0.00,,CLR,0.00,229.00,VWS V14.00,2013-01-25 16:34:00,
2013-01-25 10:35:00,26.4,17.6,30.19,WNW,283,6.0,12.0,69,0.00,,CLR,0.00,199.00,VWS V14.00,2013-01-25 16:35:00,
2013-01-25 10:38:00,26.5,17.7,30.19,NW,323,8.0,14.0,69,0.00,,CLR,0.00,188.00,VWS V14.00,2013-01-25 16:38:00,
2013-01-25 10:39:00,26.6,18.1,30.19,West,267,8.0,14.0,70,0.00,,CLR,0.00,301.00,VWS V14.00,2013-01-25 16:39:00,
2013-01-25 10:40:00,26.7,18.2,30.19,NW,311,10.0,14.0,70,0.00,,CLR,0.00,265.00,VWS V14.00,2013-01-25 16:40:00,
2013-01-25 10:43:00,26.9,18.1,30.19,WNW,295,7.0,14.0,69,0.00,,CLR,0.00,243.00,VWS V14.00,2013-01-25 16:43:00,
2013-01-25 10:44:00,27.0,18.2,30.19,WNW,302,10.0,11.0,69,0.00,,CLR,0.00,318.00,VWS V14.00,2013-01-25 16:44:00,
2013-01-25 10:45:00,27.0,18.2,30.19,WNW,293,9.0,12.0,69,0.00,,CLR,0.00,304.00,VWS V14.00,2013-01-25 16:45:00,
2013-01-25 10:48:00,27.0,18.2,30.19,NW,319,9.0,13.0,69,0.00,,CLR,0.00,283.00,VWS V14.00,2013-01-25 16:48:00,
2013-01-25 10:50:00,27.1,18.3,30.19,West,271,7.0,10.0,69,0.00,,CLR,0.00,299.00,VWS V14.00,2013-01-25 16:50:00,
2013-01-25 10:54:00,27.5,18.7,30.19,NW,313,6.0,12.0,69,0.00,,CLR,0.00,114.00,VWS V14.00,2013-01-25 16:54:00,
2013-01-25 10:55:00,27.6,19.1,30.19,WNW,287,11.0,12.0,70,0.00,,CLR,0.00,125.00,VWS V14.00,2013-01-25 16:55:00,
2013-01-25 10:59:00,27.9,19.1,30.19,NW,318,9.0,11.0,69,0.00,,CLR,0.00,214.00,VWS V14.00,2013-01-25 16:59:00,
2013-01-25 11:00:00,27.9,19.1,30.19,NW,307,8.0,11.0,69,0.00,,CLR,0.00,127.00,VWS V14.00,2013-01-25 17:00:00,
2013-01-25 11:04:00,28.0,19.2,30.19,WNW,289,9.0,12.0,69,0.00,,CLR,0.00,134.00,VWS V14.00,2013-01-25 17:04:00,
2013-01-25 11:05:00,28.1,19.3,30.19,WNW,292,6.0,17.0,69,0.00,,CLR,0.00,176.00,VWS V14.00,2013-01-25 17:05:00,
2013-01-25 11:06:00,28.1,19.3,30.19,NW,305,10.0,17.0,69,0.00,,CLR,0.00,185.00,VWS V14.00,2013-01-25 17:06:00,
2013-01-25 11:10:00,28.3,19.1,30.20,WNW,287,7.0,17.0,68,0.00,,CLR,0.00,250.00,VWS V14.00,2013-01-25 17:10:00,
2013-01-25 11:11:00,28.3,19.1,30.20,West,281,8.0,17.0,68,0.00,,CLR,0.00,167.00,VWS V14.00,2013-01-25 17:11:00,
2013-01-25 11:15:00,28.3,19.1,30.20,NW,304,8.0,11.0,68,0.00,,CLR,0.00,234.00,VWS V14.00,2013-01-25 17:15:00,
2013-01-25 11:16:00,28.3,19.1,30.20,WSW,246,6.0,17.0,68,0.00,,CLR,0.00,186.00,VWS V14.00,2013-01-25 17:16:00,
2013-01-25 11:20:00,28.4,19.9,30.20,NW,324,12.0,14.0,70,0.00,,CLR,0.00,232.00,VWS V14.00,2013-01-25 17:20:00,
2013-01-25 11:21:00,28.5,20.3,30.20,WNW,294,12.0,16.0,71,0.00,,CLR,0.00,274.00,VWS V14.00,2013-01-25 17:21:00,
2013-01-25 11:25:00,28.5,20.6,30.19,WNW,300,7.0,14.0,72,0.00,,CLR,0.00,195.00,VWS V14.00,2013-01-25 17:25:00,
2013-01-25 11:26:00,28.5,21.0,30.19,WNW,296,9.0,18.0,73,0.00,,CLR,0.00,214.00,VWS V14.00,2013-01-25 17:26:00,
2013-01-25 11:27:00,28.5,21.0,30.19,NW,312,12.0,18.0,73,0.00,,CLR,0.00,214.00,VWS V14.00,2013-01-25 17:27:00,
2013-01-25 11:30:00,28.4,20.9,30.19,WNW,299,12.0,20.0,73,0.00,,CLR,0.00,111.00,VWS V14.00,2013-01-25 17:30:00,
2013-01-25 11:31:00,28.4,21.2,30.19,WNW,286,8.0,17.0,74,0.00,,CLR,0.00,178.00,VWS V14.00,2013-01-25 17:31:00,
2013-01-25 11:32:00,28.4,21.2,30.19,NNW,329,11.0,17.0,74,0.00,,CLR,0.00,178.00,VWS V14.00,2013-01-25 17:32:00,
2013-01-25 11:35:00,28.5,21.6,30.19,WNW,296,13.0,19.0,75,0.00,,CLR,0.00,269.00,VWS V14.00,2013-01-25 17:35:00,
2013-01-25 11:37:00,28.5,21.6,30.19,WNW,303,12.0,18.0,75,0.00,,CLR,0.00,279.00,VWS V14.00,2013-01-25 17:37:00,
2013-01-25 11:40:00,28.5,21.9,30.19,WNW,301,11.0,18.0,76,0.00,,CLR,0.00,288.00,VWS V14.00,2013-01-25 17:40:00,
2013-01-25 11:42:00,28.6,22.0,30.18,WNW,294,7.0,22.0,76,0.00,,CLR,0.00,315.00,VWS V14.00,2013-01-25 17:42:00,
2013-01-25 11:45:00,28.7,21.8,30.18,NNW,332,8.0,22.0,75,0.00,,CLR,0.00,292.00,VWS V14.00,2013-01-25 17:45:00,
2013-01-25 11:47:00,28.9,22.0,30.18,WNW,298,14.0,21.0,75,0.00,,CLR,0.00,237.00,VWS V14.00,2013-01-25 17:47:00,
2013-01-25 11:48:00,28.9,21.7,30.18,WNW,294,16.0,23.0,74,0.00,,CLR,0.00,239.00,VWS V14.00,2013-01-25 17:48:00,
2013-01-25 11:50:00,28.9,21.7,30.19,NNW,332,11.0,23.0,74,0.00,,CLR,0.00,306.00,VWS V14.00,2013-01-25 17:50:00,
2013-01-25 11:52:00,29.0,22.1,30.19,NW,311,5.0,14.0,75,0.00,,CLR,0.00,281.00,VWS V14.00,2013-01-25 17:52:00,
2013-01-25 11:53:00,29.2,22.3,30.19,WNW,291,6.0,14.0,75,0.00,,CLR,0.00,301.00,VWS V14.00,2013-01-25 17:53:00,
2013-01-25 11:55:00,29.2,22.3,30.19,NW,313,16.0,16.0,75,0.00,,CLR,0.00,338.00,VWS V14.00,2013-01-25 17:55:00,
2013-01-25 11:57:00,29.4,22.1,30.19,NNW,339,12.0,19.0,74,0.00,,CLR,0.00,381.00,VWS V14.00,2013-01-25 17:57:00,
2013-01-25 11:58:00,29.5,22.2,30.19,NW,312,10.0,19.0,74,0.00,,CLR,0.00,381.00,VWS V14.00,2013-01-25 17:58:00,
2013-01-25 12:00:00,29.6,22.4,30.19,WNW,285,11.0,19.0,74,0.00,,CLR,0.00,411.00,VWS V14.00,2013-01-25 18:00:00,
2013-01-25 12:02:00,29.6,22.0,30.19,North,351,11.0,21.0,73,0.00,,CLR,0.00,459.00,VWS V14.00,2013-01-25 18:02:00,
2013-01-25 12:03:00,29.6,22.0,30.19,WNW,296,9.0,21.0,73,0.00,,CLR,0.00,459.00,VWS V14.00,2013-01-25 18:03:00,
2013-01-25 12:05:00,29.7,22.1,30.19,NW,321,10.0,21.0,73,0.00,,CLR,0.00,504.00,VWS V14.00,2013-01-25 18:05:00,
2013-01-25 12:07:00,30.1,22.8,30.19,WNW,297,6.0,13.0,74,0.00,,CLR,0.00,490.00,VWS V14.00,2013-01-25 18:07:00,
2013-01-25 12:08:00,30.1,22.5,30.19,WNW,302,9.0,13.0,73,0.00,,CLR,0.00,490.00,VWS V14.00,2013-01-25 18:08:00,
2013-01-25 12:09:00,30.2,22.6,30.20,NW,311,13.0,14.0,73,0.00,,CLR,0.00,501.00,VWS V14.00,2013-01-25 18:09:00,
2013-01-25 12:10:00,30.2,22.6,30.20,NW,311,13.0,14.0,73,0.00,,CLR,0.00,501.00,VWS V14.00,2013-01-25 18:10:00,
2013-01-25 12:13:00,30.5,22.9,30.20,WNW,301,10.0,16.0,73,0.00,,CLR,0.00,503.00,VWS V14.00,2013-01-25 18:13:00,
2013-01-25 12:14:00,30.6,22.7,30.19,NW,317,10.0,12.0,72,0.00,,CLR,0.00,497.00,VWS V14.00,2013-01-25 18:14:00,
2013-01-25 12:15:00,30.6,22.7,30.20,NW,317,13.0,16.0,72,0.00,,CLR,0.00,512.00,VWS V14.00,2013-01-25 18:15:00,
2013-01-25 12:18:00,30.9,23.0,30.19,NW,311,8.0,15.0,72,0.00,,CLR,0.00,446.00,VWS V14.00,2013-01-25 18:18:00,
2013-01-25 12:19:00,31.0,23.0,30.19,NW,317,13.0,13.0,72,0.00,,CLR,0.00,512.00,VWS V14.00,2013-01-25 18:19:00,
2013-01-25 12:20:00,31.0,23.0,30.19,NNW,328,6.0,15.0,72,0.00,,CLR,0.00,506.00,VWS V14.00,2013-01-25 18:20:00,
2013-01-25 12:23:00,31.3,23.0,30.19,NW,320,4.0,17.0,71,0.00,,CLR,0.00,504.00,VWS V14.00,2013-01-25 18:23:00,
2013-01-25 12:24:00,31.3,23.0,30.19,WNW,290,6.0,17.0,71,0.00,,CLR,0.00,504.00,VWS V14.00,2013-01-25 18:24:00,
2013-01-25 12:25:00,31.3,23.0,30.19,NW,315,7.0,17.0,71,0.00,,CLR,0.00,504.00,VWS V14.00,2013-01-25 18:25:00,
2013-01-25 12:28:00,31.3,23.3,30.19,WNW,295,12.0,18.0,72,0.00,,CLR,0.00,504.00,VWS V14.00,2013-01-25 18:28:00,
2013-01-25 12:29:00,31.3,23.3,30.19,WNW,301,11.0,18.0,72,0.00,,CLR,0.00,508.00,VWS V14.00,2013-01-25 18:29:00,
2013-01-25 12:30:00,31.4,23.4,30.19,North,5,6.0,16.0,72,0.00,,CLR,0.00,499.00,VWS V14.00,2013-01-25 18:30:00,
2013-01-25 12:33:00,31.5,23.9,30.18,NW,304,11.0,17.0,73,0.00,,CLR,0.00,496.00,VWS V14.00,2013-01-25 18:33:00,
2013-01-25 12:34:00,31.5,23.9,30.18,WNW,290,8.0,11.0,73,0.00,,CLR,0.00,513.00,VWS V14.00,2013-01-25 18:34:00,
2013-01-25 12:35:00,31.5,23.9,30.18,NNW,329,10.0,19.0,73,0.00,,CLR,0.00,503.00,VWS V14.00,2013-01-25 18:35:00,
2013-01-25 12:38:00,31.8,23.8,30.18,WNW,297,10.0,19.0,72,0.00,,CLR,0.00,503.00,VWS V14.00,2013-01-25 18:38:00,
2013-01-25 12:39:00,31.8,23.8,30.18,WNW,298,10.0,14.0,72,0.00,,CLR,0.00,499.00,VWS V14.00,2013-01-25 18:39:00,
2013-01-25 12:40:00,31.9,23.9,30.18,NW,320,5.0,14.0,72,0.00,,CLR,0.00,513.00,VWS V14.00,2013-01-25 18:40:00,
2013-01-25 12:43:00,31.9,23.6,30.18,WNW,300,9.0,14.0,71,0.00,,CLR,0.00,499.00,VWS V14.00,2013-01-25 18:43:00,
2013-01-25 12:44:00,31.9,23.9,30.18,NW,304,5.0,11.0,72,0.00,,CLR,0.00,490.00,VWS V14.00,2013-01-25 18:44:00,
2013-01-25 12:45:00,32.0,24.3,30.18,NNW,329,9.0,19.0,73,0.00,,CLR,0.00,499.00,VWS V14.00,2013-01-25 18:45:00,
2013-01-25 12:48:00,32.4,24.4,30.18,WNW,288,8.0,19.0,72,0.00,,CLR,0.00,489.00,VWS V14.00,2013-01-25 18:48:00,
2013-01-25 12:49:00,32.5,24.5,30.18,WNW,289,11.0,19.0,72,0.00,,CLR,0.00,489.00,VWS V14.00,2013-01-25 18:49:00,
2013-01-25 12:50:00,32.6,24.6,30.18,NW,323,8.0,14.0,72,0.00,,CLR,0.00,487.00,VWS V14.00,2013-01-25 18:50:00,
2013-01-25 12:51:00,32.7,24.4,30.18,WNW,298,6.0,14.0,71,0.00,,CLR,0.00,496.00,VWS V14.00,2013-01-25 18:51:00,
2013-01-25 12:54:00,32.8,24.5,30.18,NNW,338,6.0,19.0,71,0.00,,CLR,0.00,489.00,VWS V14.00,2013-01-25 18:54:00,
2013-01-25 12:55:00,32.9,24.5,30.18,WNW,301,12.0,14.0,71,0.00,,CLR,0.00,490.00,VWS V14.00,2013-01-25 18:55:00,
2013-01-25 12:56:00,32.9,24.2,30.18,WNW,282,8.0,14.0,70,0.00,,CLR,0.00,482.00,VWS V14.00,2013-01-25 18:56:00,
2013-01-25 12:59:00,32.8,24.5,30.17,WNW,303,6.0,16.0,71,0.00,,CLR,0.00,489.00,VWS V14.00,2013-01-25 18:59:00,
2013-01-25 13:00:00,32.9,24.5,30.17,NW,307,11.0,21.0,71,0.00,,CLR,0.00,494.00,VWS V14.00,2013-01-25 19:00:00,
2013-01-25 13:01:00,32.9,24.5,30.18,WSW,239,9.0,21.0,71,0.00,,CLR,0.00,499.00,VWS V14.00,2013-01-25 19:01:00,
2013-01-25 13:04:00,33.0,25.0,30.18,NNW,330,10.0,21.0,72,0.00,,CLR,0.00,476.00,VWS V14.00,2013-01-25 19:04:00,
2013-01-25 13:05:00,33.2,25.2,30.18,West,281,10.0,14.0,72,0.00,,CLR,0.00,490.00,VWS V14.00,2013-01-25 19:05:00,
2013-01-25 13:06:00,33.3,25.3,30.18,NW,321,14.0,14.0,72,0.00,,CLR,0.00,490.00,VWS V14.00,2013-01-25 19:06:00,
2013-01-25 13:09:00,33.5,24.8,30.18,WNW,288,9.0,19.0,70,0.00,,CLR,0.00,475.00,VWS V14.00,2013-01-25 19:09:00,
2013-01-25 13:10:00,33.5,24.8,30.18,WNW,288,9.0,19.0,70,0.00,,CLR,0.00,475.00,VWS V14.00,2013-01-25 19:10:00,
2013-01-25 13:11:00,33.6,25.2,30.18,West,271,8.0,21.0,71,0.00,,CLR,0.00,396.00,VWS V14.00,2013-01-25 19:11:00,
2013-01-25 13:14:00,33.7,25.0,30.17,NW,312,13.0,13.0,70,0.00,,CLR,0.00,468.00,VWS V14.00,2013-01-25 19:14:00,
2013-01-25 13:15:00,33.7,25.0,30.17,WNW,302,14.0,16.0,70,0.00,,CLR,0.00,469.00,VWS V14.00,2013-01-25 19:15:00,
2013-01-25 13:16:00,33.7,25.0,30.17,NW,308,11.0,19.0,70,0.00,,CLR,0.00,475.00,VWS V14.00,2013-01-25 19:16:00,
2013-01-25 13:19:00,33.8,25.1,30.17,NW,309,10.0,13.0,70,0.00,,CLR,0.00,471.00,VWS V14.00,2013-01-25 19:19:00,
2013-01-25 13:20:00,33.8,25.1,30.17,NW,306,11.0,16.0,70,0.00,,CLR,0.00,471.00,VWS V14.00,2013-01-25 19:20:00,
2013-01-25 13:21:00,33.8,25.1,30.17,NNW,332,8.0,16.0,70,0.00,,CLR,0.00,468.00,VWS V14.00,2013-01-25 19:21:00,
2013-01-25 13:22:00,33.9,25.2,30.17,NW,315,17.0,20.0,70,0.00,,CLR,0.00,469.00,VWS V14.00,2013-01-25 19:22:00,
2013-01-25 13:24:00,34.0,25.6,30.17,NW,315,14.0,18.0,71,0.00,,CLR,0.00,462.00,VWS V14.00,2013-01-25 19:24:00,
2013-01-25 13:25:00,34.0,25.6,30.17,NW,317,16.0,18.0,71,0.00,,CLR,0.00,462.00,VWS V14.00,2013-01-25 19:25:00,
2013-01-25 13:26:00,34.1,25.7,30.17,NW,319,4.0,18.0,71,0.00,,CLR,0.00,455.00,VWS V14.00,2013-01-25 19:26:00,
2013-01-25 13:27:00,34.1,25.7,30.17,NW,304,10.0,18.0,71,0.00,,CLR,0.00,445.00,VWS V14.00,2013-01-25 19:27:00,
2013-01-25 13:29:00,34.3,25.9,30.17,NW,323,15.0,18.0,71,0.00,,CLR,0.00,439.00,VWS V14.00,2013-01-25 19:29:00,
2013-01-25 13:30:00,34.4,26.0,30.17,NW,316,14.0,20.0,71,0.00,,CLR,0.00,429.00,VWS V14.00,2013-01-25 19:30:00,
2013-01-25 13:31:00,34.5,25.7,30.17,NW,313,10.0,20.0,70,0.00,,CLR,0.00,404.00,VWS V14.00,2013-01-25 19:31:00,
2013-01-25 13:32:00,34.5,25.7,30.17,WNW,301,9.0,20.0,70,0.00,,CLR,0.00,408.00,VWS V14.00,2013-01-25 19:32:00,
2013-01-25 13:34:00,34.6,25.8,30.17,NW,309,5.0,10.0,70,0.00,,CLR,0.00,418.00,VWS V14.00,2013-01-25 19:34:00,
2013-01-25 13:35:00,34.6,25.5,30.17,NW,312,7.0,10.0,69,0.00,,CLR,0.00,418.00,VWS V14.00,2013-01-25 19:35:00,
2013-01-25 13:36:00,34.6,25.8,30.17,West,279,8.0,11.0,70,0.00,,CLR,0.00,387.00,VWS V14.00,2013-01-25 19:36:00,
2013-01-25 13:37:00,34.6,25.8,30.17,WNW,293,15.0,16.0,70,0.00,,CLR,0.00,394.00,VWS V14.00,2013-01-25 19:37:00,
2013-01-25 13:39:00,34.6,25.8,30.17,WNW,301,7.0,15.0,70,0.00,,CLR,0.00,390.00,VWS V14.00,2013-01-25 19:39:00,
2013-01-25 13:40:00,34.6,25.8,30.17,West,261,7.0,15.0,70,0.00,,CLR,0.00,390.00,VWS V14.00,2013-01-25 19:40:00,
2013-01-25 13:42:00,34.6,25.5,30.17,NNW,329,5.0,17.0,69,0.00,,CLR,0.00,424.00,VWS V14.00,2013-01-25 19:42:00,
2013-01-25 13:45:00,34.6,25.8,30.17,WNW,296,9.0,10.0,70,0.00,,CLR,0.00,378.00,VWS V14.00,2013-01-25 19:45:00,
2013-01-25 13:47:00,34.8,25.7,30.17,WNW,284,16.0,16.0,69,0.00,,CLR,0.00,387.00,VWS V14.00,2013-01-25 19:47:00,
2013-01-25 13:48:00,34.8,26.0,30.17,NW,321,11.0,16.0,70,0.00,,CLR,0.00,387.00,VWS V14.00,2013-01-25 19:48:00,
2013-01-25 13:50:00,34.9,26.1,30.17,WNW,298,11.0,16.0,70,0.00,,CLR,0.00,332.00,VWS V14.00,2013-01-25 19:50:00,
2013-01-25 13:51:00,35.0,25.9,30.17,NW,326,15.0,16.0,69,0.00,,CLR,0.00,334.00,VWS V14.00,2013-01-25 19:51:00,
2013-01-25 13:53:00,35.0,25.9,30.17,NW,325,17.0,18.0,69,0.00,,CLR,0.00,230.00,VWS V14.00,2013-01-25 19:53:00,
2013-01-25 13:55:00,35.0,26.2,30.17,NW,305,11.0,13.0,70,0.00,,CLR,0.00,255.00,VWS V14.00,2013-01-25 19:55:00,
2013-01-25 13:56:00,35.1,26.0,30.17,NW,313,11.0,17.0,69,0.00,,CLR,0.00,257.00,VWS V14.00,2013-01-25 19:56:00,
2013-01-25 13:58:00,35.1,26.0,30.17,WNW,291,9.0,17.0,69,0.00,,CLR,0.00,302.00,VWS V14.00,2013-01-25 19:58:00,
2013-01-25 14:00:00,35.2,26.1,30.17,NW,310,6.0,13.0,69,0.00,,CLR,0.00,371.00,VWS V14.00,2013-01-25 20:00:00,
2013-01-25 14:01:00,35.3,26.2,30.17,WNW,282,8.0,13.0,69,0.00,,CLR,0.00,338.00,VWS V14.00,2013-01-25 20:01:00,
2013-01-25 14:03:00,35.4,25.9,30.17,NNW,339,16.0,16.0,68,0.00,,CLR,0.00,288.00,VWS V14.00,2013-01-25 20:03:00,
2013-01-25 14:05:00,35.3,25.8,30.16,WNW,289,12.0,21.0,68,0.00,,CLR,0.00,176.00,VWS V14.00,2013-01-25 20:05:00,
2013-01-25 14:06:00,35.3,25.5,30.17,NW,311,15.0,21.0,67,0.00,,CLR,0.00,176.00,VWS V14.00,2013-01-25 20:06:00,
2013-01-25 14:08:00,35.3,25.5,30.17,WNW,294,9.0,21.0,67,0.00,,CLR,0.00,265.00,VWS V14.00,2013-01-25 20:08:00,
2013-01-25 14:10:00,35.2,25.4,30.16,NW,315,10.0,15.0,67,0.00,,CLR,0.00,221.00,VWS V14.00,2013-01-25 20:10:00,
2013-01-25 14:12:00,35.2,25.4,30.16,NW,322,17.0,17.0,67,0.00,,CLR,0.00,206.00,VWS V14.00,2013-01-25 20:12:00,
2013-01-25 14:13:00,35.2,25.4,30.16,WNW,301,17.0,17.0,67,0.00,,CLR,0.00,253.00,VWS V14.00,2013-01-25 20:13:00,
2013-01-25 14:15:00,35.2,25.4,30.16,NNW,329,8.0,17.0,67,0.00,,CLR,0.00,253.00,VWS V14.00,2013-01-25 20:15:00,
2013-01-25 14:16:00,35.2,25.4,30.16,NW,305,10.0,20.0,67,0.00,,CLR,0.00,336.00,VWS V14.00,2013-01-25 20:16:00,
2013-01-25 14:17:00,35.2,25.4,30.16,WNW,292,8.0,20.0,67,0.00,,CLR,0.00,348.00,VWS V14.00,2013-01-25 20:17:00,
2013-01-25 14:18:00,35.2,25.4,30.17,NW,311,7.0,20.0,67,0.00,,CLR,0.00,323.00,VWS V14.00,2013-01-25 20:18:00,
2013-01-25 14:20:00,35.2,25.4,30.17,NW,313,9.0,20.0,67,0.00,,CLR,0.00,315.00,VWS V14.00,2013-01-25 20:20:00,
2013-01-25 14:21:00,35.2,25.4,30.16,WNW,300,4.0,20.0,67,0.00,,CLR,0.00,283.00,VWS V14.00,2013-01-25 20:21:00,
2013-01-25 14:22:00,35.3,25.5,30.17,WNW,299,9.0,20.0,67,0.00,,CLR,0.00,283.00,VWS V14.00,2013-01-25 20:22:00,
2013-01-25 14:23:00,35.3,25.5,30.17,NW,323,12.0,20.0,67,0.00,,CLR,0.00,135.00,VWS V14.00,2013-01-25 20:23:00,
2013-01-25 14:24:00,35.3,25.5,30.17,NW,319,9.0,20.0,67,0.00,,CLR,0.00,135.00,VWS V14.00,2013-01-25 20:24:00,
2013-01-25 14:25:00,35.3,25.5,30.17,NW,311,7.0,20.0,67,0.00,,CLR,0.00,162.00,VWS V14.00,2013-01-25 20:25:00,
2013-01-25 14:26:00,35.4,25.5,30.16,NW,323,11.0,14.0,67,0.00,,CLR,0.00,199.00,VWS V14.00,2013-01-25 20:26:00,
2013-01-25 14:27:00,35.4,25.5,30.16,NW,309,12.0,14.0,67,0.00,,CLR,0.00,220.00,VWS V14.00,2013-01-25 20:27:00,
2013-01-25 14:28:00,35.4,25.5,30.16,NW,317,11.0,17.0,67,0.00,,CLR,0.00,216.00,VWS V14.00,2013-01-25 20:28:00,
2013-01-25 14:29:00,35.5,25.6,30.16,NW,317,14.0,17.0,67,0.00,,CLR,0.00,216.00,VWS V14.00,2013-01-25 20:29:00,
2013-01-25 14:30:00,35.4,25.5,30.16,NW,325,12.0,17.0,67,0.00,,CLR,0.00,216.00,VWS V14.00,2013-01-25 20:30:00,
2013-01-25 14:31:00,35.5,25.6,30.16,West,273,14.0,16.0,67,0.00,,CLR,0.00,109.00,VWS V14.00,2013-01-25 20:31:00,
2013-01-25 14:32:00,35.5,25.6,30.16,WNW,289,12.0,16.0,67,0.00,,CLR,0.00,93.00,VWS V14.00,2013-01-25 20:32:00,
2013-01-25 14:34:00,35.5,25.6,30.17,NNW,331,22.0,22.0,67,0.00,,CLR,0.00,142.00,VWS V14.00,2013-01-25 20:34:00,
2013-01-25 14:35:00,35.5,25.6,30.17,NW,313,20.0,22.0,67,0.00,,CLR,0.00,142.00,VWS V14.00,2013-01-25 20:35:00,
2013-01-25 14:37:00,35.5,25.3,30.17,WNW,286,7.0,24.0,66,0.00,,CLR,0.00,237.00,VWS V14.00,2013-01-25 20:37:00,
2013-01-25 14:39:00,35.4,25.2,30.17,NW,315,11.0,15.0,66,0.00,,CLR,0.00,248.00,VWS V14.00,2013-01-25 20:39:00,
2013-01-25 14:40:00,35.5,25.3,30.17,NW,311,15.0,24.0,66,0.00,,CLR,0.00,248.00,VWS V14.00,2013-01-25 20:40:00,
2013-01-25 14:42:00,35.5,25.6,30.17,West,262,10.0,16.0,67,0.00,,CLR,0.00,195.00,VWS V14.00,2013-01-25 20:42:00,
2013-01-25 14:44:00,35.4,25.2,30.17,WNW,290,7.0,12.0,66,0.00,,CLR,0.00,207.00,VWS V14.00,2013-01-25 20:44:00,
2013-01-25 14:45:00,35.4,25.2,30.17,WNW,300,12.0,19.0,66,0.00,,CLR,0.00,207.00,VWS V14.00,2013-01-25 20:45:00,
2013-01-25 14:47:00,35.5,25.6,30.17,WNW,298,7.0,14.0,67,0.00,,CLR,0.00,172.00,VWS V14.00,2013-01-25 20:47:00,
2013-01-25 14:49:00,35.6,25.7,30.17,WNW,303,15.0,17.0,67,0.00,,CLR,0.00,146.00,VWS V14.00,2013-01-25 20:49:00,
2013-01-25 14:50:00,35.6,25.7,30.17,NW,319,12.0,15.0,67,0.00,,CLR,0.00,190.00,VWS V14.00,2013-01-25 20:50:00,
2013-01-25 14:52:00,35.7,25.5,30.17,NNW,333,11.0,21.0,66,0.00,,CLR,0.00,193.00,VWS V14.00,2013-01-25 20:52:00,
2013-01-25 14:54:00,35.7,25.5,30.17,West,269,9.0,9.0,66,0.00,,CLR,0.00,239.00,VWS V14.00,2013-01-25 20:54:00,
2013-01-25 14:55:00,35.6,25.4,30.17,WNW,288,7.0,21.0,66,0.00,,CLR,0.00,239.00,VWS V14.00,2013-01-25 20:55:00,
2013-01-25 14:57:00,35.7,25.5,30.17,NW,311,8.0,20.0,66,0.00,,CLR,0.00,190.00,VWS V14.00,2013-01-25 20:57:00,
2013-01-25 15:00:00,35.7,25.5,30.17,WNW,300,10.0,15.0,66,0.00,,CLR,0.00,251.00,VWS V14.00,2013-01-25 21:00:00,
2013-01-25 15:02:00,35.6,25.4,30.17,West,279,12.0,15.0,66,0.00,,CLR,0.00,237.00,VWS V14.00,2013-01-25 21:02:00,
2013-01-25 15:05:00,35.6,25.4,30.17,WSW,257,7.0,18.0,66,0.00,,CLR,0.00,202.00,VWS V14.00,2013-01-25 21:05:00,
2013-01-25 15:07:00,35.6,25.4,30.17,NW,324,3.0,18.0,66,0.00,,CLR,0.00,171.00,VWS V14.00,2013-01-25 21:07:00,
2013-01-25 15:08:00,35.6,25.4,30.17,WNW,286,3.0,18.0,66,0.00,,CLR,0.00,163.00,VWS V14.00,2013-01-25 21:08:00,
2013-01-25 15:10:00,35.6,25.4,30.17,WNW,302,18.0,18.0,66,0.00,,CLR,0.00,167.00,VWS V14.00,2013-01-25 21:10:00,
2013-01-25 15:12:00,35.7,25.5,30.17,WNW,298,6.0,19.0,66,0.00,,CLR,0.00,158.00,VWS V14.00,2013-01-25 21:12:00,
2013-01-25 15:13:00,35.7,25.5,30.17,WNW,284,8.0,19.0,66,0.00,,CLR,0.00,163.00,VWS V14.00,2013-01-25 21:13:00,
2013-01-25 15:15:00,35.7,25.5,30.17,WNW,294,10.0,19.0,66,0.00,,CLR,0.00,165.00,VWS V14.00,2013-01-25 21:15:00,
2013-01-25 15:17:00,35.6,25.0,30.17,WNW,297,6.0,19.0,65,0.00,,CLR,0.00,158.00,VWS V14.00,2013-01-25 21:17:00,
2013-01-25 15:18:00,35.5,24.9,30.17,NW,304,6.0,19.0,65,0.00,,CLR,0.00,172.00,VWS V14.00,2013-01-25 21:18:00,
2013-01-25 15:20:00,35.5,25.3,30.17,WNW,282,20.0,20.0,66,0.00,,CLR,0.00,172.00,VWS V14.00,2013-01-25 21:20:00,
2013-01-25 15:22:00,35.5,25.3,30.17,WNW,298,12.0,22.0,66,0.00,,CLR,0.00,134.00,VWS V14.00,2013-01-25 21:22:00,
2013-01-25 15:23:00,35.5,25.6,30.17,WNW,302,6.0,22.0,67,0.00,,CLR,0.00,137.00,VWS V14.00,2013-01-25 21:23:00,
2013-01-25 15:25:00,35.5,25.6,30.17,WNW,303,12.0,12.0,67,0.00,,CLR,0.00,204.00,VWS V14.00,2013-01-25 21:25:00,
2013-01-25 15:26:00,35.5,25.6,30.17,NW,322,12.0,17.0,67,0.00,,CLR,0.00,200.00,VWS V14.00,2013-01-25 21:26:00,
2013-01-25 15:28:00,35.4,25.2,30.17,NW,323,12.0,17.0,66,0.00,,CLR,0.00,179.00,VWS V14.00,2013-01-25 21:28:00,
2013-01-25 15:29:00,35.4,25.2,30.17,NNW,327,8.0,17.0,66,0.00,,CLR,0.00,172.00,VWS V14.00,2013-01-25 21:29:00,
2013-01-25 15:30:00,35.4,25.5,30.17,WNW,302,10.0,15.0,67,0.00,,CLR,0.00,144.00,VWS V14.00,2013-01-25 21:30:00,
2013-01-25 15:31:00,35.4,25.5,30.17,NW,321,7.0,15.0,67,0.00,,CLR,0.00,130.00,VWS V14.00,2013-01-25 21:31:00,
2013-01-25 15:33:00,35.4,25.5,30.17,NW,314,15.0,18.0,67,0.00,,CLR,0.00,116.00,VWS V14.00,2013-01-25 21:33:00,
2013-01-25 15:34:00,35.4,25.5,30.17,WNW,296,12.0,20.0,67,0.00,,CLR,0.00,116.00,VWS V14.00,2013-01-25 21:34:00,
2013-01-25 15:35:00,35.3,25.5,30.17,NW,307,7.0,12.0,67,0.00,,CLR,0.00,91.00,VWS V14.00,2013-01-25 21:35:00,
2013-01-25 15:36:00,35.3,25.5,30.17,WNW,294,11.0,18.0,67,0.00,,CLR,0.00,90.00,VWS V14.00,2013-01-25 21:36:00,
2013-01-25 15:38:00,35.3,25.5,30.17,West,262,11.0,18.0,67,0.00,,CLR,0.00,111.00,VWS V14.00,2013-01-25 21:38:00,
2013-01-25 15:39:00,35.3,25.5,30.17,NW,316,10.0,19.0,67,0.00,,CLR,0.00,111.00,VWS V14.00,2013-01-25 21:39:00,
2013-01-25 15:40:00,35.3,25.5,30.17,NW,316,10.0,19.0,67,0.00,,CLR,0.00,111.00,VWS V14.00,2013-01-25 21:40:00,
2013-01-25 15:41:00,35.2,25.4,30.17,WNW,294,10.0,15.0,67,0.00,,CLR,0.00,72.00,VWS V14.00,2013-01-25 21:41:00,
2013-01-25 15:43:00,35.1,25.3,30.17,NW,313,10.0,17.0,67,0.00,,CLR,0.00,97.00,VWS V14.00,2013-01-25 21:43:00,
2013-01-25 15:44:00,35.1,25.3,30.17,NW,305,12.0,17.0,67,0.00,,CLR,0.00,98.00,VWS V14.00,2013-01-25 21:44:00,
2013-01-25 15:45:00,35.1,25.3,30.17,NW,305,12.0,17.0,67,0.00,,CLR,0.00,98.00,VWS V14.00,2013-01-25 21:45:00,
2013-01-25 15:46:00,35.1,25.3,30.17,West,281,4.0,13.0,67,0.00,,CLR,0.00,105.00,VWS V14.00,2013-01-25 21:46:00,
2013-01-25 15:48:00,35.2,25.4,30.17,WNW,291,6.0,13.0,67,0.00,,CLR,0.00,118.00,VWS V14.00,2013-01-25 21:48:00,
2013-01-25 15:49:00,35.2,25.4,30.17,NW,306,8.0,9.0,67,0.00,,CLR,0.00,144.00,VWS V14.00,2013-01-25 21:49:00,
2013-01-25 15:50:00,35.2,25.4,30.17,NW,309,9.0,13.0,67,0.00,,,0.00,144.00,VWS V14.00,2013-01-25 21:50:00,
2013-01-25 15:51:00,35.3,25.5,30.17,WNW,303,6.0,13.0,67,0.00,,CLR,0.00,139.00,VWS V14.00,2013-01-25 21:51:00,
2013-01-25 15:53:00,35.3,25.5,30.17,NNW,330,9.0,14.0,67,0.00,,CLR,0.00,130.00,VWS V14.00,2013-01-25 21:53:00,
2013-01-25 15:54:00,35.3,25.5,30.17,NW,309,9.0,9.0,67,0.00,,CLR,0.00,121.00,VWS V14.00,2013-01-25 21:54:00,
2013-01-25 15:55:00,35.3,25.5,30.17,WNW,295,9.0,14.0,67,0.00,,CLR,0.00,121.00,VWS V14.00,2013-01-25 21:55:00,
2013-01-25 15:56:00,35.2,25.4,30.17,NW,323,10.0,14.0,67,0.00,,CLR,0.00,84.00,VWS V14.00,2013-01-25 21:56:00,
2013-01-25 15:58:00,35.2,25.4,30.18,NNW,336,11.0,17.0,67,0.00,,CLR,0.00,121.00,VWS V14.00,2013-01-25 21:58:00,
2013-01-25 15:59:00,35.2,25.4,30.17,WNW,303,9.0,13.0,67,0.00,,CLR,0.00,114.00,VWS V14.00,2013-01-25 21:59:00,
2013-01-25 16:00:00,35.2,25.4,30.17,NW,315,9.0,17.0,67,0.00,,CLR,0.00,114.00,VWS V14.00,2013-01-25 22:00:00,
2013-01-25 16:01:00,35.2,25.0,30.17,NW,311,7.0,14.0,66,0.00,,CLR,0.00,120.00,VWS V14.00,2013-01-25 22:01:00,
2013-01-25 16:03:00,35.2,25.4,30.17,NNW,340,11.0,14.0,67,0.00,,CLR,0.00,104.00,VWS V14.00,2013-01-25 22:03:00,
2013-01-25 16:04:00,35.1,25.3,30.17,NW,315,11.0,11.0,67,0.00,,CLR,0.00,105.00,VWS V14.00,2013-01-25 22:04:00,
2013-01-25 16:05:00,35.2,25.4,30.17,WNW,301,9.0,14.0,67,0.00,,CLR,0.00,105.00,VWS V14.00,2013-01-25 22:05:00,
2013-01-25 16:06:00,35.1,25.3,30.18,WNW,299,9.0,15.0,67,0.00,,CLR,0.00,107.00,VWS V14.00,2013-01-25 22:06:00,
2013-01-25 16:08:00,35.2,25.4,30.18,WNW,293,8.0,15.0,67,0.00,,CLR,0.00,81.00,VWS V14.00,2013-01-25 22:08:00,
2013-01-25 16:10:00,35.1,25.3,30.18,WNW,285,12.0,12.0,67,0.00,,CLR,0.00,63.00,VWS V14.00,2013-01-25 22:10:00,
2013-01-25 16:11:00,35.1,25.3,30.18,NNW,344,9.0,12.0,67,0.00,,CLR,0.00,54.00,VWS V14.00,2013-01-25 22:11:00,
2013-01-25 16:12:00,35.0,25.2,30.18,WNW,303,4.0,13.0,67,0.00,,CLR,0.00,53.00,VWS V14.00,2013-01-25 22:12:00,
2013-01-25 16:13:00,34.9,25.1,30.18,WNW,295,3.0,13.0,67,0.00,,CLR,0.00,53.00,VWS V14.00,2013-01-25 22:13:00,
2013-01-25 16:15:00,34.8,25.0,30.18,NW,321,5.0,9.0,67,0.00,,CLR,0.00,47.00,VWS V14.00,2013-01-25 22:15:00,
2013-01-25 16:16:00,34.8,25.3,30.18,WNW,303,12.0,12.0,68,0.00,,CLR,0.00,49.00,VWS V14.00,2013-01-25 22:16:00,
2013-01-25 16:18:00,34.7,24.9,30.18,WNW,297,4.0,12.0,67,0.00,,CLR,0.00,49.00,VWS V14.00,2013-01-25 22:18:00,
2013-01-25 16:19:00,34.6,25.1,30.18,NW,312,6.0,15.0,68,0.00,,CLR,0.00,47.00,VWS V14.00,2013-01-25 22:19:00,
2013-01-25 16:20:00,34.6,25.1,30.18,NW,309,8.0,11.0,68,0.00,,CLR,0.00,49.00,VWS V14.00,2013-01-25 22:20:00,
2013-01-25 16:21:00,34.5,25.0,30.18,WNW,296,7.0,13.0,68,0.00,,CLR,0.00,39.00,VWS V14.00,2013-01-25 22:21:00,
2013-01-25 16:23:00,34.4,25.0,30.18,WNW,298,6.0,14.0,68,0.00,,CLR,0.00,37.00,VWS V14.00,2013-01-25 22:23:00,
2013-01-25 16:24:00,34.3,24.9,30.18,NW,307,10.0,18.0,68,0.00,,CLR,0.00,49.00,VWS V14.00,2013-01-25 22:24:00,
2013-01-25 16:25:00,34.3,24.9,30.18,WNW,298,16.0,18.0,68,0.00,,CLR,0.00,51.00,VWS V14.00,2013-01-25 22:25:00,
2013-01-25 16:26:00,34.2,24.8,30.18,NNW,331,11.0,18.0,68,0.00,,CLR,0.00,51.00,VWS V14.00,2013-01-25 22:26:00,
2013-01-25 16:28:00,34.1,24.7,30.18,West,269,13.0,20.0,68,0.00,,CLR,0.00,37.00,VWS V14.00,2013-01-25 22:28:00,
2013-01-25 16:29:00,34.1,24.7,30.18,NW,306,11.0,12.0,68,0.00,,CLR,0.00,35.00,VWS V14.00,2013-01-25 22:29:00,
2013-01-25 16:30:00,34.0,24.6,30.18,NW,319,8.0,13.0,68,0.00,,CLR,0.00,33.00,VWS V14.00,2013-01-25 22:30:00,
2013-01-25 16:32:00,33.9,24.8,30.18,NW,304,7.0,13.0,69,0.00,,CLR,0.00,32.00,VWS V14.00,2013-01-25 22:32:00,
2013-01-25 16:33:00,33.8,24.7,30.18,WNW,294,6.0,13.0,69,0.00,,CLR,0.00,28.00,VWS V14.00,2013-01-25 22:33:00,
2013-01-25 16:34:00,33.8,24.7,30.18,NW,312,5.0,7.0,69,0.00,,CLR,0.00,28.00,VWS V14.00,2013-01-25 22:34:00,
2013-01-25 16:35:00,33.8,24.7,30.18,WNW,292,5.0,13.0,69,0.00,,CLR,0.00,28.00,VWS V14.00,2013-01-25 22:35:00,
2013-01-25 16:36:00,33.8,24.7,30.18,WNW,291,5.0,11.0,69,0.00,,CLR,0.00,28.00,VWS V14.00,2013-01-25 22:36:00,
2013-01-25 16:37:00,33.7,24.6,30.19,NW,306,9.0,13.0,69,0.00,,CLR,0.00,26.00,VWS V14.00,2013-01-25 22:37:00,
2013-01-25 16:39:00,33.7,24.6,30.18,NW,306,15.0,16.0,69,0.00,,CLR,0.00,25.00,VWS V14.00,2013-01-25 22:39:00,
2013-01-25 16:40:00,33.6,24.5,30.18,WNW,287,10.0,16.0,69,0.00,,CLR,0.00,25.00,VWS V14.00,2013-01-25 22:40:00,
2013-01-25 16:41:00,33.6,24.9,30.18,NW,322,8.0,17.0,70,0.00,,CLR,0.00,23.00,VWS V14.00,2013-01-25 22:41:00,
2013-01-25 16:42:00,33.6,24.9,30.19,NW,306,8.0,17.0,70,0.00,,CLR,0.00,23.00,VWS V14.00,2013-01-25 22:42:00,
2013-01-25 16:44:00,33.5,24.8,30.18,WNW,290,8.0,15.0,70,0.00,,CLR,0.00,23.00,VWS V14.00,2013-01-25 22:44:00,
2013-01-25 16:45:00,33.5,24.8,30.19,NW,312,15.0,17.0,70,0.00,,CLR,0.00,23.00,VWS V14.00,2013-01-25 22:45:00,
2013-01-25 16:46:00,33.4,24.7,30.19,NW,304,4.0,15.0,70,0.00,,CLR,0.00,21.00,VWS V14.00,2013-01-25 22:46:00,
2013-01-25 16:47:00,33.4,24.7,30.19,WNW,285,16.0,16.0,70,0.00,,CLR,0.00,21.00,VWS V14.00,2013-01-25 22:47:00,
2013-01-25 16:49:00,33.3,24.9,30.19,NW,317,7.0,12.0,71,0.00,,CLR,0.00,21.00,VWS V14.00,2013-01-25 22:49:00,
2013-01-25 16:50:00,33.3,24.9,30.19,NW,312,8.0,16.0,71,0.00,,CLR,0.00,21.00,VWS V14.00,2013-01-25 22:50:00,
2013-01-25 16:51:00,33.2,24.8,30.19,NW,324,7.0,14.0,71,0.00,,CLR,0.00,19.00,VWS V14.00,2013-01-25 22:51:00,
2013-01-25 16:52:00,33.2,24.8,30.19,NW,319,14.0,14.0,71,0.00,,CLR,0.00,19.00,VWS V14.00,2013-01-25 22:52:00,
2013-01-25 16:54:00,33.1,24.7,30.19,WNW,293,11.0,11.0,71,0.00,,CLR,0.00,16.00,VWS V14.00,2013-01-25 22:54:00,
2013-01-25 16:55:00,33.1,24.7,30.19,NNW,333,11.0,13.0,71,0.00,,CLR,0.00,16.00,VWS V14.00,2013-01-25 22:55:00,
2013-01-25 16:56:00,33.1,24.7,30.19,NW,319,14.0,14.0,71,0.00,,CLR,0.00,16.00,VWS V14.00,2013-01-25 22:56:00,
2013-01-25 16:57:00,33.0,24.6,30.19,WNW,303,11.0,14.0,71,0.00,,CLR,0.00,14.00,VWS V14.00,2013-01-25 22:57:00,
2013-01-25 17:00:00,33.0,24.6,30.19,NNW,337,9.0,15.0,71,0.00,,CLR,0.00,14.00,VWS V14.00,2013-01-25 23:00:00,
2013-01-25 17:01:00,33.0,24.6,30.19,NW,314,9.0,15.0,71,0.00,,CLR,0.00,12.00,VWS V14.00,2013-01-25 23:01:00,
2013-01-25 17:03:00,32.9,24.5,30.19,NW,314,7.0,15.0,71,0.00,,CLR,0.00,12.00,VWS V14.00,2013-01-25 23:03:00,
2013-01-25 17:05:00,32.8,24.5,30.19,WNW,301,8.0,16.0,71,0.00,,CLR,0.00,12.00,VWS V14.00,2013-01-25 23:05:00,
2013-01-25 17:06:00,32.8,24.8,30.19,NW,310,11.0,16.0,72,0.00,,CLR,0.00,11.00,VWS V14.00,2013-01-25 23:06:00,
2013-01-25 17:09:00,32.7,24.7,30.19,NNW,327,8.0,16.0,72,0.00,,CLR,0.00,11.00,VWS V14.00,2013-01-25 23:09:00,
2013-01-25 17:10:00,32.6,24.6,30.19,NW,314,7.0,11.0,72,0.00,,CLR,0.00,9.00,VWS V14.00,2013-01-25 23:10:00,
2013-01-25 17:11:00,32.6,24.6,30.19,WNW,302,6.0,11.0,72,0.00,,CLR,0.00,9.00,VWS V14.00,2013-01-25 23:11:00,
2013-01-25 17:14:00,32.5,24.5,30.19,WNW,295,3.0,4.0,72,0.00,,CLR,0.00,7.00,VWS V14.00,2013-01-25 23:14:00,
2013-01-25 17:15:00,32.4,24.4,30.19,WNW,300,9.0,13.0,72,0.00,,CLR,0.00,7.00,VWS V14.00,2013-01-25 23:15:00,
2013-01-25 17:16:00,32.4,24.4,30.19,NW,307,7.0,13.0,72,0.00,,CLR,0.00,5.00,VWS V14.00,2013-01-25 23:16:00,
2013-01-25 17:19:00,32.2,24.2,30.19,WNW,291,8.0,9.0,72,0.00,,CLR,0.00,0.00,VWS V14.00,2013-01-25 23:19:00,
2013-01-25 17:20:00,32.1,24.1,30.19,NW,304,6.0,16.0,72,0.00,,CLR,0.00,0.00,VWS V14.00,2013-01-25 23:20:00,
2013-01-25 17:21:00,32.1,24.1,30.19,NNW,341,8.0,16.0,72,0.00,,CLR,0.00,0.00,VWS V14.00,2013-01-25 23:21:00,
2013-01-25 17:24:00,32.0,24.3,30.19,NNW,333,11.0,13.0,73,0.00,,CLR,0.00,0.00,VWS V14.00,2013-01-25 23:24:00,
2013-01-25 17:25:00,31.9,24.2,30.19,NW,315,8.0,13.0,73,0.00,,CLR,0.00,0.00,VWS V14.00,2013-01-25 23:25:00,
2013-01-25 17:26:00,31.9,24.2,30.19,NW,308,7.0,13.0,73,0.00,,CLR,0.00,0.00,VWS V14.00,2013-01-25 23:26:00,
2013-01-25 17:29:00,31.7,24.0,30.19,NW,306,8.0,8.0,73,0.00,,CLR,0.00,0.00,VWS V14.00,2013-01-25 23:29:00,
2013-01-25 17:30:00,31.7,24.0,30.20,NW,305,3.0,9.0,73,0.00,,CLR,0.00,0.00,VWS V14.00,2013-01-25 23:30:00,
2013-01-25 17:31:00,31.7,24.0,30.20,NW,317,4.0,9.0,73,0.00,,CLR,0.00,0.00,VWS V14.00,2013-01-25 23:31:00,
2013-01-25 17:35:00,31.5,24.2,30.19,NW,321,8.0,11.0,74,0.00,,CLR,0.00,0.00,VWS V14.00,2013-01-25 23:35:00,
2013-01-25 17:36:00,31.4,24.1,30.19,NW,311,6.0,11.0,74,0.00,,CLR,0.00,0.00,VWS V14.00,2013-01-25 23:36:00,
2013-01-25 17:40:00,31.3,24.0,30.20,NNW,327,15.0,16.0,74,0.00,,CLR,0.00,0.00,VWS V14.00,2013-01-25 23:40:00,
2013-01-25 17:41:00,31.2,23.9,30.19,WNW,288,9.0,16.0,74,0.00,,CLR,0.00,0.00,VWS V14.00,2013-01-25 23:41:00,
2013-01-25 17:45:00,31.2,23.9,30.20,NNW,329,9.0,9.0,74,0.00,,CLR,0.00,0.00,VWS V14.00,2013-01-25 23:45:00,
2013-01-25 17:46:00,31.1,23.8,30.20,NNW,336,7.0,9.0,74,0.00,,CLR,0.00,0.00,VWS V14.00,2013-01-25 23:46:00,
2013-01-25 17:47:00,31.1,24.1,30.20,NW,320,7.0,10.0,75,0.00,,CLR,0.00,0.00,VWS V14.00,2013-01-25 23:47:00,
2013-01-25 17:50:00,31.0,24.0,30.20,NNW,342,6.0,11.0,75,0.00,,CLR,0.00,0.00,VWS V14.00,2013-01-25 23:50:00,
2013-01-25 17:51:00,31.0,24.0,30.20,NW,321,8.0,11.0,75,0.00,,CLR,0.00,0.00,VWS V14.00,2013-01-25 23:51:00,
2013-01-25 17:52:00,31.0,24.0,30.20,WNW,301,8.0,11.0,75,0.00,,CLR,0.00,0.00,VWS V14.00,2013-01-25 23:52:00,
2013-01-25 17:55:00,30.9,23.9,30.21,NW,312,5.0,12.0,75,0.00,,CLR,0.00,0.00,VWS V14.00,2013-01-25 23:55:00,
2013-01-25 17:56:00,30.8,23.8,30.21,NW,310,10.0,12.0,75,0.00,,CLR,0.00,0.00,VWS V14.00,2013-01-25 23:56:00,
2013-01-25 17:57:00,30.8,23.8,30.21,WNW,303,8.0,12.0,75,0.00,,CLR,0.00,0.00,VWS V14.00,2013-01-25 23:57:00,
2013-01-25 18:00:00,30.7,23.7,30.20,WNW,282,5.0,15.0,75,0.00,,CLR,0.00,0.00,VWS V14.00,2013-01-26 00:00:00,
2013-01-25 18:01:00,30.7,23.7,30.21,NW,323,6.0,15.0,75,0.00,,CLR,0.00,0.00,VWS V14.00,2013-01-26 00:01:00,
2013-01-25 18:02:00,30.7,23.7,30.21,NW,323,12.0,15.0,75,0.00,,CLR,0.00,0.00,VWS V14.00,2013-01-26 00:02:00,
2013-01-25 18:05:00,30.7,23.7,30.21,NNW,327,7.0,8.0,75,0.00,,CLR,0.00,0.00,VWS V14.00,2013-01-26 00:05:00,
2013-01-25 18:06:00,30.7,23.7,30.21,NW,312,8.0,10.0,75,0.00,,CLR,0.00,0.00,VWS V14.00,2013-01-26 00:06:00,
2013-01-25 18:07:00,30.7,23.7,30.21,NW,325,7.0,10.0,75,0.00,,CLR,0.00,0.00,VWS V14.00,2013-01-26 00:07:00,
2013-01-25 18:10:00,30.6,23.6,30.21,NW,305,8.0,9.0,75,0.00,,CLR,0.00,0.00,VWS V14.00,2013-01-26 00:10:00,
2013-01-25 18:11:00,30.6,23.6,30.21,NW,305,7.0,10.0,75,0.00,,CLR,0.00,0.00,VWS V14.00,2013-01-26 00:11:00,
2013-01-25 18:12:00,30.6,23.6,30.21,NW,311,5.0,10.0,75,0.00,,CLR,0.00,0.00,VWS V14.00,2013-01-26 00:12:00,
2013-01-25 18:15:00,30.5,23.5,30.21,NW,321,3.0,10.0,75,0.00,,CLR,0.00,0.00,VWS V14.00,2013-01-26 00:15:00,
2013-01-25 18:16:00,30.4,23.4,30.21,WNW,303,8.0,11.0,75,0.00,,CLR,0.00,0.00,VWS V14.00,2013-01-26 00:16:00,
2013-01-25 18:17:00,30.4,23.4,30.21,WNW,302,6.0,11.0,75,0.00,,CLR,0.00,0.00,VWS V14.00,2013-01-26 00:17:00,
2013-01-25 18:20:00,30.3,23.3,30.21,NW,324,7.0,13.0,75,0.00,,CLR,0.00,0.00,VWS V14.00,2013-01-26 00:20:00,
2013-01-25 18:21:00,30.3,23.3,30.21,WNW,298,4.0,13.0,75,0.00,,CLR,0.00,0.00,VWS V14.00,2013-01-26 00:21:00,
2013-01-25 18:22:00,30.2,23.6,30.21,NW,315,4.0,13.0,76,0.00,,CLR,0.00,0.00,VWS V14.00,2013-01-26 00:22:00,
2013-01-25 18:25:00,30.2,23.2,30.21,NNW,331,9.0,13.0,75,0.00,,CLR,0.00,0.00,VWS V14.00,2013-01-26 00:25:00,
2013-01-25 18:26:00,30.1,23.1,30.22,NW,311,5.0,11.0,75,0.00,,CLR,0.00,0.00,VWS V14.00,2013-01-26 00:26:00,
2013-01-25 18:27:00,30.1,23.1,30.21,NW,314,9.0,11.0,75,0.00,,CLR,0.00,0.00,VWS V14.00,2013-01-26 00:27:00,
2013-01-25 18:30:00,30.0,23.0,30.22,NW,319,9.0,14.0,75,0.00,,CLR,0.00,0.00,VWS V14.00,2013-01-26 00:30:00,
2013-01-25 18:31:00,29.9,23.0,30.22,North,349,6.0,12.0,75,0.00,,CLR,0.00,0.00,VWS V14.00,2013-01-26 00:31:00,
2013-01-25 18:32:00,29.9,23.0,30.22,NW,313,9.0,12.0,75,0.00,,CLR,0.00,0.00,VWS V14.00,2013-01-26 00:32:00,
2013-01-25 18:33:00,29.9,23.0,30.22,NNW,327,9.0,12.0,75,0.00,,CLR,0.00,0.00,VWS V14.00,2013-01-26 00:33:00,
2013-01-25 18:35:00,29.8,22.9,30.22,NW,324,8.0,12.0,75,0.00,,CLR,0.00,0.00,VWS V14.00,2013-01-26 00:35:00,
2013-01-25 18:36:00,29.8,22.9,30.22,NNW,345,6.0,15.0,75,0.00,,CLR,0.00,0.00,VWS V14.00,2013-01-26 00:36:00,
2013-01-25 18:37:00,29.8,22.9,30.22,North,9,5.0,15.0,75,0.00,,CLR,0.00,0.00,VWS V14.00,2013-01-26 00:37:00,
2013-01-25 18:38:00,29.8,22.9,30.22,NW,316,7.0,15.0,75,0.00,,CLR,0.00,0.00,VWS V14.00,2013-01-26 00:38:00,
2013-01-25 18:40:00,29.8,22.5,30.22,NNW,329,8.0,15.0,74,0.00,,CLR,0.00,0.00,VWS V14.00,2013-01-26 00:40:00,
2013-01-25 18:41:00,29.7,22.4,30.22,NNW,340,9.0,12.0,74,0.00,,CLR,0.00,0.00,VWS V14.00,2013-01-26 00:41:00,
2013-01-25 18:42:00,29.7,22.4,30.22,NW,319,5.0,12.0,74,0.00,,CLR,0.00,0.00,VWS V14.00,2013-01-26 00:42:00,
2013-01-25 18:43:00,29.7,22.4,30.22,NW,322,6.0,12.0,74,0.00,,CLR,0.00,0.00,VWS V14.00,2013-01-26 00:43:00,
2013-01-25 18:45:00,29.6,22.4,30.22,North,355,7.0,12.0,74,0.00,,CLR,0.00,0.00,VWS V14.00,2013-01-26 00:45:00,
2013-01-25 18:46:00,29.5,22.2,30.22,NNW,331,7.0,11.0,74,0.00,,CLR,0.00,0.00,VWS V14.00,2013-01-26 00:46:00,
2013-01-25 18:47:00,29.4,22.1,30.22,North,351,10.0,11.0,74,0.00,,CLR,0.00,0.00,VWS V14.00,2013-01-26 00:47:00,
2013-01-25 18:48:00,29.4,22.1,30.22,NNW,340,8.0,11.0,74,0.00,,CLR,0.00,0.00,VWS V14.00,2013-01-26 00:48:00,
2013-01-25 18:50:00,29.3,21.7,30.23,North,355,9.0,15.0,73,0.00,,CLR,0.00,0.00,VWS V14.00,2013-01-26 00:50:00,
2013-01-25 18:52:00,28.2,18.3,30.23,North,355,10.0,13.0,66,0.00,,CLR,0.00,0.00,VWS V14.00,2013-01-26 00:52:00,
2013-01-25 18:53:00,27.9,18.0,30.23,NNW,329,5.0,13.0,66,0.00,,CLR,0.00,0.00,VWS V14.00,2013-01-26 00:53:00,
2013-01-25 18:55:00,27.6,17.7,30.23,NE,34,7.0,13.0,66,0.00,,CLR,0.00,0.00,VWS V14.00,2013-01-26 00:55:00,
2013-01-25 18:57:00,26.4,16.6,30.23,North,355,11.0,12.0,66,0.00,,CLR,0.00,0.00,VWS V14.00,2013-01-26 00:57:00,
2013-01-25 18:58:00,26.2,16.8,30.23,NNW,340,11.0,12.0,67,0.00,,CLR,0.00,0.00,VWS V14.00,2013-01-26 00:58:00,
2013-01-25 19:00:00,26.0,16.6,30.23,North,355,11.0,12.0,67,0.00,,CLR,0.00,0.00,VWS V14.00,2013-01-26 01:00:00,
2013-01-25 19:02:00,25.1,16.0,30.23,NNE,15,10.0,13.0,68,0.00,,CLR,0.00,0.00,VWS V14.00,2013-01-26 01:02:00,
2013-01-25 19:03:00,25.0,15.9,30.23,NNW,348,10.0,13.0,68,0.00,,CLR,0.00,0.00,VWS V14.00,2013-01-26 01:03:00,
2013-01-25 19:05:00,24.8,15.8,30.23,NE,35,8.0,13.0,68,0.00,,CLR,0.00,0.00,VWS V14.00,2013-01-26 01:05:00,
2013-01-25 19:07:00,24.3,15.6,30.24,North,355,4.0,11.0,69,0.00,,CLR,0.00,0.00,VWS V14.00,2013-01-26 01:07:00,
2013-01-25 19:08:00,24.2,15.8,30.24,NE,36,7.0,11.0,70,0.00,,CLR,0.00,0.00,VWS V14.00,2013-01-26 01:08:00,
2013-01-25 19:10:00,24.1,15.8,30.24,NNE,31,10.0,11.0,70,0.00,,CLR,0.00,0.00,VWS V14.00,2013-01-26 01:10:00,
2013-01-25 19:13:00,23.6,15.3,30.24,NNE,22,9.0,12.0,70,0.00,,CLR,0.00,0.00,VWS V14.00,2013-01-26 01:13:00,
2013-01-25 19:14:00,23.5,15.2,30.24,NNW,327,7.0,12.0,70,0.00,,CLR,0.00,0.00,VWS V14.00,2013-01-26 01:14:00,
2013-01-25 19:15:00,23.5,15.2,30.24,North,360,7.0,12.0,70,0.00,,CLR,0.00,0.00,VWS V14.00,2013-01-26 01:15:00,
2013-01-25 19:18:00,23.2,15.2,30.24,North,355,9.0,13.0,71,0.00,,CLR,0.00,0.00,VWS V14.00,2013-01-26 01:18:00,
2013-01-25 19:19:00,23.1,15.1,30.24,North,360,9.0,9.0,71,0.00,,CLR,0.00,0.00,VWS V14.00,2013-01-26 01:19:00,
2013-01-25 19:20:00,23.1,15.1,30.24,North,360,9.0,13.0,71,0.00,,CLR,0.00,0.00,VWS V14.00,2013-01-26 01:20:00,
2013-01-25 19:23:00,22.7,14.7,30.25,North,350,5.0,10.0,71,0.00,,CLR,0.00,0.00,VWS V14.00,2013-01-26 01:23:00,
2013-01-25 19:24:00,22.7,14.7,30.25,NNE,20,4.0,10.0,71,0.00,,CLR,0.00,0.00,VWS V14.00,2013-01-26 01:24:00,
2013-01-25 19:25:00,22.7,14.7,30.25,NNE,15,6.0,10.0,71,0.00,,CLR,0.00,0.00,VWS V14.00,2013-01-26 01:25:00,
2013-01-25 19:28:00,22.4,14.4,30.25,North,355,6.0,10.0,71,0.00,,CLR,0.00,0.00,VWS V14.00,2013-01-26 01:28:00,
2013-01-25 19:29:00,22.4,14.4,30.25,NNE,13,6.0,10.0,71,0.00,,CLR,0.00,0.00,VWS V14.00,2013-01-26 01:29:00,
2013-01-25 19:30:00,22.4,14.4,30.25,NNW,347,6.0,10.0,71,0.00,,CLR,0.00,0.00,VWS V14.00,2013-01-26 01:30:00,
2013-01-25 19:33:00,22.0,14.1,30.25,North,9,11.0,13.0,71,0.00,,CLR,0.00,0.00,VWS V14.00,2013-01-26 01:33:00,
2013-01-25 19:34:00,22.0,14.1,30.25,NNW,346,9.0,13.0,71,0.00,,CLR,0.00,0.00,VWS V14.00,2013-01-26 01:34:00,
2013-01-25 19:35:00,22.0,14.1,30.25,North,360,7.0,13.0,71,0.00,,CLR,0.00,0.00,VWS V14.00,2013-01-26 01:35:00,
2013-01-25 19:39:00,21.7,13.8,30.25,North,360,8.0,12.0,71,0.00,,CLR,0.00,0.00,VWS V14.00,2013-01-26 01:39:00,
2013-01-25 19:40:00,21.7,13.8,30.25,North,9,8.0,12.0,71,0.00,,CLR,0.00,0.00,VWS V14.00,2013-01-26 01:40:00,
2013-01-25 19:44:00,21.4,12.8,30.26,NNW,339,8.0,12.0,69,0.00,,CLR,0.00,0.00,VWS V14.00,2013-01-26 01:44:00,
2013-01-25 19:45:00,21.3,12.7,30.25,North,355,7.0,13.0,69,0.00,,CLR,0.00,0.00,VWS V14.00,2013-01-26 01:45:00,
2013-01-25 19:49:00,21.1,12.5,30.26,North,355,7.0,13.0,69,0.00,,CLR,0.00,0.00,VWS V14.00,2013-01-26 01:49:00,
2013-01-25 19:50:00,21.0,12.4,30.26,NNW,332,4.0,8.0,69,0.00,,CLR,0.00,0.00,VWS V14.00,2013-01-26 01:50:00,
2013-01-25 19:54:00,20.7,12.1,30.26,NNW,346,7.0,12.0,69,0.00,,CLR,0.00,0.00,VWS V14.00,2013-01-26 01:54:00,
2013-01-25 19:55:00,20.7,12.1,30.26,NNW,334,3.0,11.0,69,0.00,,CLR,0.00,0.00,VWS V14.00,2013-01-26 01:55:00,
2013-01-25 19:59:00,20.4,11.5,30.27,North,355,8.0,9.0,68,0.00,,CLR,0.00,0.00,VWS V14.00,2013-01-26 01:59:00,
2013-01-25 20:00:00,20.4,11.5,30.27,NNW,348,6.0,9.0,68,0.00,,CLR,0.00,0.00,VWS V14.00,2013-01-26 02:00:00,
2013-01-25 20:04:00,20.1,11.6,30.27,North,5,9.0,9.0,69,0.00,,CLR,0.00,0.00,VWS V14.00,2013-01-26 02:04:00,
2013-01-25 20:05:00,20.1,11.6,30.27,NNW,333,7.0,10.0,69,0.00,,CLR,0.00,0.00,VWS V14.00,2013-01-26 02:05:00,
2013-01-25 20:09:00,19.9,11.4,30.27,North,349,10.0,11.0,69,0.00,,CLR,0.00,0.00,VWS V14.00,2013-01-26 02:09:00,
2013-01-25 20:10:00,19.9,11.4,30.27,NNW,340,10.0,11.0,69,0.00,,CLR,0.00,0.00,VWS V14.00,2013-01-26 02:10:00,
2013-01-25 20:15:00,19.6,10.8,30.27,NNE,21,10.0,13.0,68,0.00,,CLR,0.00,0.00,VWS V14.00,2013-01-26 02:15:00,
2013-01-25 20:20:00,19.4,10.6,30.27,North,350,8.0,12.0,68,0.00,,CLR,0.00,0.00,VWS V14.00,2013-01-26 02:20:00,
2013-01-25 20:21:00,19.4,10.6,30.27,NNW,345,11.0,14.0,68,0.00,,CLR,0.00,0.00,VWS V14.00,2013-01-26 02:21:00,
2013-01-25 20:25:00,19.2,10.4,30.28,NW,326,8.0,14.0,68,0.00,,CLR,0.00,0.00,VWS V14.00,2013-01-26 02:25:00,
2013-01-25 20:26:00,19.1,10.0,30.28,North,355,10.0,14.0,67,0.00,,CLR,0.00,0.00,VWS V14.00,2013-01-26 02:26:00,
2013-01-25 20:30:00,19.0,9.9,30.28,NNW,342,8.0,14.0,67,0.00,,CLR,0.00,0.00,VWS V14.00,2013-01-26 02:30:00,
2013-01-25 20:31:00,18.9,9.8,30.28,North,355,9.0,14.0,67,0.00,,CLR,0.00,0.00,VWS V14.00,2013-01-26 02:31:00,
2013-01-25 20:35:00,18.8,9.7,30.28,NNE,22,6.0,10.0,67,0.00,,CLR,0.00,0.00,VWS V14.00,2013-01-26 02:35:00,
2013-01-25 20:36:00,18.8,9.7,30.28,NNW,338,6.0,10.0,67,0.00,,CLR,0.00,0.00,VWS V14.00,2013-01-26 02:36:00,
2013-01-25 20:40:00,18.6,9.5,30.29,North,355,5.0,6.0,67,0.00,,CLR,0.00,0.00,VWS V14.00,2013-01-26 02:40:00,
2013-01-25 20:41:00,18.5,9.4,30.29,NNW,338,8.0,8.0,67,0.00,,CLR,0.00,0.00,VWS V14.00,2013-01-26 02:41:00,
2013-01-25 20:45:00,18.4,9.3,30.29,NNW,331,8.0,11.0,67,0.00,,CLR,0.00,0.00,VWS V14.00,2013-01-26 02:45:00,
2013-01-25 20:46:00,18.3,9.2,30.29,North,360,7.0,11.0,67,0.00,,CLR,0.00,0.00,VWS V14.00,2013-01-26 02:46:00,
2013-01-25 20:47:00,18.3,9.2,30.29,North,360,7.0,11.0,67,0.00,,CLR,0.00,0.00,VWS V14.00,2013-01-26 02:47:00,
2013-01-25 20:50:00,18.2,9.4,30.29,North,5,4.0,7.0,68,0.00,,CLR,0.00,0.00,VWS V14.00,2013-01-26 02:50:00,
2013-01-25 20:51:00,18.2,9.4,30.29,NNW,348,7.0,8.0,68,0.00,,CLR,0.00,0.00,VWS V14.00,2013-01-26 02:51:00,
2013-01-25 20:52:00,18.1,9.3,30.29,NNE,14,4.0,9.0,68,0.00,,CLR,0.00,0.00,VWS V14.00,2013-01-26 02:52:00,
2013-01-25 20:55:00,18.0,9.6,30.30,North,360,9.0,9.0,69,0.00,,CLR,0.00,0.00,VWS V14.00,2013-01-26 02:55:00,
2013-01-25 20:56:00,18.0,9.6,30.30,North,9,7.0,9.0,69,0.00,,CLR,0.00,0.00,VWS V14.00,2013-01-26 02:56:00,
2013-01-25 20:57:00,17.9,9.5,30.30,North,5,7.0,9.0,69,0.00,,CLR,0.00,0.00,VWS V14.00,2013-01-26 02:57:00,
2013-01-25 20:58:00,17.9,9.5,30.30,North,5,5.0,9.0,69,0.00,,CLR,0.00,0.00,VWS V14.00,2013-01-26 02:58:00,
2013-01-25 21:00:00,17.7,9.3,30.30,NNE,21,3.0,9.0,69,0.00,,CLR,0.00,0.00,VWS V14.00,2013-01-26 03:00:00,
2013-01-25 21:01:00,17.7,9.3,30.31,North,360,7.0,9.0,69,0.00,,CLR,0.00,0.00,VWS V14.00,2013-01-26 03:01:00,
2013-01-25 21:02:00,17.6,9.2,30.30,North,355,7.0,9.0,69,0.00,,CLR,0.00,0.00,VWS V14.00,2013-01-26 03:02:00,
2013-01-25 21:03:00,17.6,9.2,30.30,NNW,341,8.0,10.0,69,0.00,,CLR,0.00,0.00,VWS V14.00,2013-01-26 03:03:00,
2013-01-25 21:05:00,17.5,9.1,30.30,NNE,17,8.0,10.0,69,0.00,,CLR,0.00,0.00,VWS V14.00,2013-01-26 03:05:00,
2013-01-25 21:06:00,17.4,9.0,30.30,North,351,10.0,10.0,69,0.00,,CLR,0.00,0.00,VWS V14.00,2013-01-26 03:06:00,
2013-01-25 21:07:00,17.3,8.9,30.30,NNW,336,5.0,13.0,69,0.00,,CLR,0.00,0.00,VWS V14.00,2013-01-26 03:07:00,
2013-01-25 21:08:00,17.3,8.9,30.30,North,355,8.0,13.0,69,0.00,,CLR,0.00,0.00,VWS V14.00,2013-01-26 03:08:00,
2013-01-25 21:10:00,17.2,8.8,30.30,NNW,338,12.0,15.0,69,0.00,,CLR,0.00,0.00,VWS V14.00,2013-01-26 03:10:00,
2013-01-25 21:11:00,17.1,8.7,30.31,North,11,3.0,12.0,69,0.00,,CLR,0.00,0.00,VWS V14.00,2013-01-26 03:11:00,
2013-01-25 21:12:00,17.1,8.7,30.31,North,9,4.0,12.0,69,0.00,,CLR,0.00,0.00,VWS V14.00,2013-01-26 03:12:00,
2013-01-25 21:13:00,17.0,8.6,30.31,NNE,15,7.0,12.0,69,0.00,,CLR,0.00,0.00,VWS V14.00,2013-01-26 03:13:00,
2013-01-25 21:15:00,17.0,8.6,30.31,NNE,28,6.0,12.0,69,0.00,,CLR,0.00,0.00,VWS V14.00,2013-01-26 03:15:00,
2013-01-25 21:16:00,16.9,8.2,30.31,North,360,8.0,11.0,68,0.00,,CLR,0.00,0.00,VWS V14.00,2013-01-26 03:16:00,
2013-01-25 21:17:00,16.9,8.2,30.31,North,355,8.0,12.0,68,0.00,,CLR,0.00,0.00,VWS V14.00,2013-01-26 03:17:00,
2013-01-25 21:18:00,16.8,8.1,30.31,North,360,6.0,12.0,68,0.00,,CLR,0.00,0.00,VWS V14.00,2013-01-26 03:18:00,
2013-01-25 21:20:00,16.8,8.1,30.31,NNW,348,6.0,12.0,68,0.00,,CLR,0.00,0.00,VWS V14.00,2013-01-26 03:20:00,
2013-01-25 21:21:00,16.7,8.0,30.32,NNW,348,7.0,10.0,68,0.00,,CLR,0.00,0.00,VWS V14.00,2013-01-26 03:21:00,
2013-01-25 21:22:00,16.7,7.7,30.32,North,349,9.0,12.0,67,0.00,,CLR,0.00,0.00,VWS V14.00,2013-01-26 03:22:00,
2013-01-25 21:23:00,16.7,7.7,30.32,NNE,28,10.0,12.0,67,0.00,,CLR,0.00,0.00,VWS V14.00,2013-01-26 03:23:00,
2013-01-25 21:25:00,16.6,7.6,30.32,NNW,346,4.0,12.0,67,0.00,,CLR,0.00,0.00,VWS V14.00,2013-01-26 03:25:00,
2013-01-25 21:26:00,16.5,7.5,30.32,NNW,342,8.0,13.0,67,0.00,,CLR,0.00,0.00,VWS V14.00,2013-01-26 03:26:00,
2013-01-25 21:27:00,16.5,7.5,30.32,NNW,329,6.0,13.0,67,0.00,,CLR,0.00,0.00,VWS V14.00,2013-01-26 03:27:00,
2013-01-25 21:28:00,16.4,7.0,30.32,North,9,6.0,13.0,66,0.00,,CLR,0.00,0.00,VWS V14.00,2013-01-26 03:28:00,
2013-01-25 21:29:00,16.4,7.0,30.32,NNW,341,7.0,13.0,66,0.00,,CLR,0.00,0.00,VWS V14.00,2013-01-26 03:29:00,
2013-01-25 21:30:00,16.4,7.0,30.32,NNE,15,10.0,13.0,66,0.00,,CLR,0.00,0.00,VWS V14.00,2013-01-26 03:30:00,
2013-01-25 21:31:00,16.3,6.9,30.32,North,360,6.0,11.0,66,0.00,,CLR,0.00,0.00,VWS V14.00,2013-01-26 03:31:00,
2013-01-25 21:32:00,16.3,6.9,30.33,NNW,336,8.0,11.0,66,0.00,,CLR,0.00,0.00,VWS V14.00,2013-01-26 03:32:00,
2013-01-25 21:33:00,16.2,6.8,30.33,NNW,345,12.0,14.0,66,0.00,,CLR,0.00,0.00,VWS V14.00,2013-01-26 03:33:00,
2013-01-25 21:34:00,16.2,6.5,30.32,North,349,12.0,12.0,65,0.00,,CLR,0.00,0.00,VWS V14.00,2013-01-26 03:34:00,
2013-01-25 21:35:00,16.2,6.5,30.33,North,5,12.0,14.0,65,0.00,,CLR,0.00,0.00,VWS V14.00,2013-01-26 03:35:00,
2013-01-25 21:37:00,16.1,6.4,30.33,North,355,9.0,12.0,65,0.00,,CLR,0.00,0.00,VWS V14.00,2013-01-26 03:37:00,
2013-01-25 21:38:00,16.1,6.4,30.33,North,355,7.0,12.0,65,0.00,,CLR,0.00,0.00,VWS V14.00,2013-01-26 03:38:00,
2013-01-25 21:39:00,16.0,6.3,30.33,NNE,21,12.0,12.0,65,0.00,,CLR,0.00,0.00,VWS V14.00,2013-01-26 03:39:00,
2013-01-25 21:40:00,16.0,6.3,30.33,North,5,11.0,12.0,65,0.00,,CLR,0.00,0.00,VWS V14.00,2013-01-26 03:40:00,
2013-01-25 21:42:00,15.9,6.2,30.33,North,355,7.0,12.0,65,0.00,,CLR,0.00,0.00,VWS V14.00,2013-01-26 03:42:00,
2013-01-25 21:43:00,15.9,6.2,30.33,NE,42,5.0,13.0,65,0.00,,CLR,0.00,0.00,VWS V14.00,2013-01-26 03:43:00,
2013-01-25 21:44:00,15.8,5.8,30.33,NNW,338,9.0,10.0,64,0.00,,CLR,0.00,0.00,VWS V14.00,2013-01-26 03:44:00,
2013-01-25 21:45:00,15.9,6.2,30.33,North,5,7.0,13.0,65,0.00,,CLR,0.00,0.00,VWS V14.00,2013-01-26 03:45:00,
2013-01-25 21:47:00,15.7,5.7,30.34,NNW,344,7.0,14.0,64,0.00,,CLR,0.00,0.00,VWS V14.00,2013-01-26 03:47:00,
2013-01-25 21:48:00,15.7,5.7,30.33,North,9,9.0,14.0,64,0.00,,CLR,0.00,0.00,VWS V14.00,2013-01-26 03:48:00,
2013-01-25 21:50:00,15.6,5.6,30.34,NNW,329,2.0,9.0,64,0.00,,CLR,0.00,0.00,VWS V14.00,2013-01-26 03:50:00,
2013-01-25 21:52:00,15.5,5.5,30.34,NNW,344,8.0,13.0,64,0.00,,CLR,0.00,0.00,VWS V14.00,2013-01-26 03:52:00,
2013-01-25 21:53:00,15.5,5.5,30.34,NNW,331,5.0,13.0,64,0.00,,CLR,0.00,0.00,VWS V14.00,2013-01-26 03:53:00,
2013-01-25 21:55:00,15.4,5.4,30.34,NNW,348,9.0,9.0,64,0.00,,CLR,0.00,0.00,VWS V14.00,2013-01-26 03:55:00,
2013-01-25 21:57:00,15.3,5.7,30.34,North,360,7.0,14.0,65,0.00,,CLR,0.00,0.00,VWS V14.00,2013-01-26 03:57:00,
2013-01-25 21:58:00,15.3,5.7,30.34,North,9,8.0,17.0,65,0.00,,CLR,0.00,0.00,VWS V14.00,2013-01-26 03:58:00,
2013-01-25 22:00:00,15.2,5.2,30.34,North,350,10.0,11.0,64,0.00,,CLR,0.00,0.00,VWS V14.00,2013-01-26 04:00:00,
2013-01-25 22:03:00,15.1,5.1,30.34,NW,325,8.0,12.0,64,0.00,,CLR,0.00,0.00,VWS V14.00,2013-01-26 04:03:00,
2013-01-25 22:05:00,15.0,5.0,30.34,NNW,338,7.0,12.0,64,0.00,,CLR,0.00,0.00,VWS V14.00,2013-01-26 04:05:00,
2013-01-25 22:08:00,14.9,4.9,30.34,North,355,4.0,12.0,64,0.00,,CLR,0.00,0.00,VWS V14.00,2013-01-26 04:08:00,
2013-01-25 22:09:00,14.9,4.9,30.34,North,349,6.0,12.0,64,0.00,,CLR,0.00,0.00,VWS V14.00,2013-01-26 04:09:00,
2013-01-25 22:10:00,14.8,4.8,30.34,NNW,337,7.0,11.0,64,0.00,,CLR,0.00,0.00,VWS V14.00,2013-01-26 04:10:00,
2013-01-25 22:13:00,14.8,4.8,30.34,North,5,8.0,11.0,64,0.00,,CLR,0.00,0.00,VWS V14.00,2013-01-26 04:13:00,
2013-01-25 22:14:00,14.7,4.8,30.34,North,355,5.0,9.0,64,0.00,,CLR,0.00,0.00,VWS V14.00,2013-01-26 04:14:00,
2013-01-25 22:15:00,14.7,4.8,30.34,North,360,8.0,11.0,64,0.00,,CLR,0.00,0.00,VWS V14.00,2013-01-26 04:15:00,
2013-01-25 22:16:00,14.7,4.8,30.34,NNW,333,6.0,9.0,64,0.00,,CLR,0.00,0.00,VWS V14.00,2013-01-26 04:16:00,
2013-01-25 22:18:00,14.6,4.7,30.35,North,360,4.0,10.0,64,0.00,,CLR,0.00,0.00,VWS V14.00,2013-01-26 04:18:00,
2013-01-25 22:20:00,14.6,5.0,30.35,NNE,24,3.0,7.0,65,0.00,,CLR,0.00,0.00,VWS V14.00,2013-01-26 04:20:00,
2013-01-25 22:21:00,14.5,4.9,30.35,North,360,6.0,7.0,65,0.00,,CLR,0.00,0.00,VWS V14.00,2013-01-26 04:21:00,
2013-01-25 22:24:00,14.4,4.8,30.34,NNE,26,7.0,9.0,65,0.00,,CLR,0.00,0.00,VWS V14.00,2013-01-26 04:24:00,
2013-01-25 22:25:00,14.4,4.8,30.35,NNE,17,5.0,8.0,65,0.00,,CLR,0.00,0.00,VWS V14.00,2013-01-26 04:25:00,
2013-01-25 22:26:00,14.3,4.7,30.35,NNE,13,7.0,8.0,65,0.00,,CLR,0.00,0.00,VWS V14.00,2013-01-26 04:26:00,
2013-01-25 22:29:00,14.3,4.7,30.35,North,355,7.0,10.0,65,0.00,,CLR,0.00,0.00,VWS V14.00,2013-01-26 04:29:00,
2013-01-25 22:30:00,14.2,4.6,30.35,NNW,345,0.0,8.0,65,0.00,,CLR,0.00,0.00,VWS V14.00,2013-01-26 04:30:00,
2013-01-25 22:31:00,14.2,4.6,30.35,NNE,30,6.0,11.0,65,0.00,,CLR,0.00,0.00,VWS V14.00,2013-01-26 04:31:00,
2013-01-25 22:34:00,14.1,4.5,30.35,NNW,331,7.0,11.0,65,0.00,,CLR,0.00,0.00,VWS V14.00,2013-01-26 04:34:00,
2013-01-25 22:35:00,14.0,4.4,30.35,NNW,333,7.0,10.0,65,0.00,,CLR,0.00,0.00,VWS V14.00,2013-01-26 04:35:00,
2013-01-25 22:36:00,14.0,4.4,30.35,North,9,7.0,10.0,65,0.00,,CLR,0.00,0.00,VWS V14.00,2013-01-26 04:36:00,
2013-01-25 22:39:00,13.9,4.3,30.35,North,5,4.0,10.0,65,0.00,,CLR,0.00,0.00,VWS V14.00,2013-01-26 04:39:00,
2013-01-25 22:40:00,13.9,4.7,30.35,NNW,348,5.0,8.0,66,0.00,,CLR,0.00,0.00,VWS V14.00,2013-01-26 04:40:00,
2013-01-25 22:41:00,13.9,4.7,30.35,NNW,333,3.0,8.0,66,0.00,,CLR,0.00,0.00,VWS V14.00,2013-01-26 04:41:00,
2013-01-25 22:44:00,13.8,4.6,30.35,NNW,342,5.0,11.0,66,0.00,,CLR,0.00,0.00,VWS V14.00,2013-01-26 04:44:00,
2013-01-25 22:45:00,13.8,4.6,30.35,NNW,342,5.0,11.0,66,0.00,,CLR,0.00,0.00,VWS V14.00,2013-01-26 04:45:00,
2013-01-25 22:46:00,13.7,4.5,30.35,NNW,346,4.0,8.0,66,0.00,,CLR,0.00,0.00,VWS V14.00,2013-01-26 04:46:00,
2013-01-25 22:49:00,13.6,4.7,30.35,North,350,7.0,11.0,67,0.00,,CLR,0.00,0.00,VWS V14.00,2013-01-26 04:49:00,
2013-01-25 22:50:00,13.6,4.7,30.35,North,350,7.0,11.0,67,0.00,,CLR,0.00,0.00,VWS V14.00,2013-01-26 04:50:00,
2013-01-25 22:51:00,13.5,4.6,30.35,NNE,32,2.0,13.0,67,0.00,,CLR,0.00,0.00,VWS V14.00,2013-01-26 04:51:00,
2013-01-25 22:54:00,13.4,4.5,30.35,North,355,6.0,13.0,67,0.00,,CLR,0.00,0.00,VWS V14.00,2013-01-26 04:54:00,
2013-01-25 22:55:00,13.4,4.5,30.35,North,355,6.0,13.0,67,0.00,,CLR,0.00,0.00,VWS V14.00,2013-01-26 04:55:00,
2013-01-25 22:56:00,13.4,4.5,30.36,NNW,347,5.0,9.0,67,0.00,,CLR,0.00,0.00,VWS V14.00,2013-01-26 04:56:00,
2013-01-25 22:59:00,13.3,4.4,30.36,North,5,4.0,4.0,67,0.00,,CLR,0.00,0.00,VWS V14.00,2013-01-26 04:59:00,
2013-01-25 23:00:00,13.2,4.3,30.36,North,355,3.0,6.0,67,0.00,,CLR,0.00,0.00,VWS V14.00,2013-01-26 05:00:00,
2013-01-25 23:01:00,13.2,4.6,30.36,North,5,4.0,6.0,68,0.00,,CLR,0.00,0.00,VWS V14.00,2013-01-26 05:01:00,
2013-01-25 23:05:00,13.1,4.5,30.36,North,355,3.0,9.0,68,0.00,,CLR,0.00,0.00,VWS V14.00,2013-01-26 05:05:00,
2013-01-25 23:06:00,13.1,4.5,30.36,North,355,8.0,9.0,68,0.00,,CLR,0.00,0.00,VWS V14.00,2013-01-26 05:06:00,
2013-01-25 23:10:00,13.0,4.4,30.36,NNE,15,5.0,9.0,68,0.00,,CLR,0.00,0.00,VWS V14.00,2013-01-26 05:10:00,
2013-01-25 23:11:00,13.0,4.4,30.36,North,11,4.0,9.0,68,0.00,,CLR,0.00,0.00,VWS V14.00,2013-01-26 05:11:00,
2013-01-25 23:15:00,12.8,4.2,30.36,NNW,346,7.0,10.0,68,0.00,,CLR,0.00,0.00,VWS V14.00,2013-01-26 05:15:00,
2013-01-25 23:16:00,12.8,4.2,30.36,NNW,344,3.0,10.0,68,0.00,,CLR,0.00,0.00,VWS V14.00,2013-01-26 05:16:00,
2013-01-25 23:20:00,12.7,4.2,30.36,North,350,6.0,10.0,68,0.00,,CLR,0.00,0.00,VWS V14.00,2013-01-26 05:20:00,
2013-01-25 23:21:00,12.7,4.2,30.36,NNE,27,7.0,11.0,68,0.00,,CLR,0.00,0.00,VWS V14.00,2013-01-26 05:21:00,
2013-01-25 23:22:00,12.7,4.2,30.36,NW,323,12.0,14.0,68,0.00,,CLR,0.00,0.00,VWS V14.00,2013-01-26 05:22:00,
2013-01-25 23:25:00,12.6,4.1,30.36,NNE,18,9.0,13.0,68,0.00,,CLR,0.00,0.00,VWS V14.00,2013-01-26 05:25:00,
2013-01-25 23:26:00,12.6,4.1,30.36,North,360,5.0,13.0,68,0.00,,CLR,0.00,0.00,VWS V14.00,2013-01-26 05:26:00,
2013-01-25 23:27:00,12.6,4.1,30.36,North,360,9.0,13.0,68,0.00,,CLR,0.00,0.00,VWS V14.00,2013-01-26 05:27:00,
2013-01-25 23:30:00,12.5,4.0,30.36,NNW,333,6.0,13.0,68,0.00,,CLR,0.00,0.00,VWS V14.00,2013-01-26 05:30:00,
2013-01-25 23:31:00,12.4,3.9,30.36,NNW,346,7.0,12.0,68,0.00,,CLR,0.00,0.00,VWS V14.00,2013-01-26 05:31:00,
2013-01-25 23:32:00,12.4,3.9,30.36,North,360,3.0,12.0,68,0.00,,CLR,0.00,0.00,VWS V14.00,2013-01-26 05:32:00,
2013-01-25 23:33:00,12.3,4.1,30.36,NE,38,6.0,12.0,69,0.00,,CLR,0.00,0.00,VWS V14.00,2013-01-26 05:33:00,
2013-01-25 23:35:00,12.3,4.1,30.36,North,360,3.0,12.0,69,0.00,,CLR,0.00,0.00,VWS V14.00,2013-01-26 05:35:00,
2013-01-25 23:36:00,12.2,4.0,30.36,North,355,8.0,8.0,69,0.00,,CLR,0.00,0.00,VWS V14.00,2013-01-26 05:36:00,
2013-01-25 23:37:00,12.2,4.0,30.36,North,355,3.0,9.0,69,0.00,,CLR,0.00,0.00,VWS V14.00,2013-01-26 05:37:00,
2013-01-25 23:38:00,12.2,4.0,30.36,NNE,15,2.0,9.0,69,0.00,,CLR,0.00,0.00,VWS V14.00,2013-01-26 05:38:00,
2013-01-25 23:40:00,12.2,4.0,30.37,North,10,8.0,10.0,69,0.00,,CLR,0.00,0.00,VWS V14.00,2013-01-26 05:40:00,
2013-01-25 23:41:00,12.1,4.2,30.36,NNE,13,9.0,13.0,70,0.00,,CLR,0.00,0.00,VWS V14.00,2013-01-26 05:41:00,
2013-01-25 23:42:00,12.1,4.2,30.36,North,351,6.0,13.0,70,0.00,,CLR,0.00,0.00,VWS V14.00,2013-01-26 05:42:00,
2013-01-25 23:43:00,12.1,4.2,30.36,NNW,338,10.0,13.0,70,0.00,,CLR,0.00,0.00,VWS V14.00,2013-01-26 05:43:00,
2013-01-25 23:45:00,12.1,4.2,30.36,North,351,2.0,13.0,70,0.00,,CLR,0.00,0.00,VWS V14.00,2013-01-26 05:45:00,
2013-01-25 23:47:00,12.0,4.1,30.36,NNW,346,5.0,10.0,70,0.00,,CLR,0.00,0.00,VWS V14.00,2013-01-26 05:47:00,
2013-01-25 23:48:00,12.0,4.1,30.36,NNW,338,4.0,10.0,70,0.00,,CLR,0.00,0.00,VWS V14.00,2013-01-26 05:48:00,
2013-01-25 23:50:00,12.0,4.1,30.36,NNE,17,7.0,10.0,70,0.00,,CLR,0.00,0.00,VWS V14.00,2013-01-26 05:50:00,
2013-01-25 23:52:00,11.9,4.3,30.36,North,5,9.0,10.0,71,0.00,,CLR,0.00,0.00,VWS V14.00,2013-01-26 05:52:00,
2013-01-25 23:53:00,11.8,4.2,30.36,North,355,8.0,13.0,71,0.00,,CLR,0.00,0.00,VWS V14.00,2013-01-26 05:53:00,
2013-01-25 23:55:00,11.8,4.2,30.36,NNE,15,9.0,13.0,71,0.00,,CLR,0.00,0.00,VWS V14.00,2013-01-26 05:55:00,
2013-01-25 23:57:00,11.7,4.1,30.36,North,5,8.0,12.0,71,0.00,,CLR,0.00,0.00,VWS V14.00,2013-01-26 05:57:00,
2013-01-25 23:58:00,11.7,4.1,30.35,North,360,10.0,12.0,71,0.00,,CLR,0.00,0.00,VWS V14.00,2013-01-26 05:58:00,